[{"header": {"dx": 0.06612293990616946, "dy": 0.0552356325346848, "nx": 98, "ny": 59, "la1": 35.046912555036876, "la2": 31.78801023549047, "lo1": -121.43107172385933, "lo2": -114.95102361305473, "refTime": "2026041600", "parameterCategory": 1, "parameterNumber": 2}, "data": [9.84, 10.13, 10.13, 10.47, 10.47, 10.76, 10.75, 10.72, 10.4, 10.88, 10.59, 10.23, 11.8, 11.6, 11.64, 11.44, 11.57, 11.18, 11.62, 12.52, 12.83, 12.3, 6.45, 1.58, 0.0, 0.0, -3.82, -3.96, -3.82, -3.82, -2.06, -2.13, 0.0, 2.19, 3.82, 6.14, 5.86, 6.64, 7.21, 7.9, 8.34, 9.48, 10.09, 10.24, 11.99, 13.52, 14.88, 12.98, 12.96, 13.55, 14.16, 14.72, 15.2, 15.65, 15.65, 15.62, 15.54, 15.54, 14.97, 14.5, 14.5, 14.31, 14.31, 13.88, 13.44, 13.88, 13.88, 13.88, 14.75, 15.78, 15.74, 15.25, 15.25, 14.84, 14.7, 15.09, 14.51, 14.03, 14.75, 14.31, 4.52, -0.0, 2.13, 1.77, 3.32, 5.2, 7.73, 7.9, 7.9, 7.15, 5.6, 6.0, 6.2, 6.6, 7.82, 8.31, 8.44, 9.17, 9.47, 10.13, 10.13, 10.13, 10.77, 10.76, 10.75, 10.72, 10.4, 10.36, 9.72, 10.58, 10.79, 11.02, 11.85, 11.71, 10.52, 11.95, 11.95, 11.35, 12.89, 12.3, 7.78, 2.54, 0.0, 0.0, -3.68, -5.4, -5.4, -3.96, -4.52, -2.28, 0.0, 1.93, 2.99, 5.59, 5.15, 5.72, 6.01, 7.27, 9.5, 10.3, 10.99, 9.66, 11.66, 13.59, 13.7, 13.25, 13.5, 14.58, 14.71, 15.16, 15.2, 15.2, 15.17, 15.53, 15.53, 14.97, 14.97, 14.5, 14.31, 14.31, 13.88, 13.44, 13.44, 13.62, 14.06, 14.06, 15.07, 15.95, 16.37, 15.68, 15.61, 14.75, 14.75, 14.51, 14.69, 14.03, 14.75, 14.31, 4.52, -0.0, 2.13, 1.77, 3.32, 5.2, 7.73, 7.9, 7.9, 7.15, 5.6, 6.0, 6.2, 6.6, 7.82, 8.31, 8.44, 9.17, 9.47, 9.75, 10.13, 10.13, 10.77, 10.47, 10.45, 10.43, 10.4, 10.09, 9.46, 8.78, 10.37, 10.43, 10.4, 10.92, 11.21, 11.21, 11.56, 12.46, 10.62, 11.5, 10.01, 2.63, 0.0, 0.0, -3.39, -3.39, -3.07, -3.19, -2.09, -2.15, 0.0, 0.0, 2.69, 5.36, 4.21, 5.2, 5.21, 6.97, 8.53, 8.93, 9.62, 10.28, 12.03, 12.79, 12.1, 13.07, 14.55, 15.15, 15.2, 15.2, 15.2, 15.17, 14.65, 15.08, 14.94, 14.97, 14.5, 14.31, 14.31, 13.88, 13.44, 13.62, 13.62, 14.19, 14.64, 15.51, 15.51, 15.93, 15.68, 15.61, 15.18, 14.75, 14.55, 14.69, 15.2, 15.2, 14.3, 13.19, 5.31, -0.0, -0.0, -0.0, 2.82, 4.08, 6.5, 7.15, 7.15, 7.28, 6.4, 6.6, 6.6, 6.6, 8.31, 8.73, 9.84, 9.5, 9.47, 9.75, 10.13, 10.13, 9.84, 10.47, 10.45, 10.43, 10.4, 10.09, 9.46, 8.53, 9.62, 9.67, 10.2, 10.58, 10.73, 11.34, 10.58, 11.34, 10.38, 10.27, 10.0, 6.2, 0.0, 0.0, -1.45, -2.7, -1.39, -1.39, -1.5, -1.72, 0.0, 0.0, 2.45, 3.98, 5.29, 5.95, 5.29, 6.24, 7.93, 9.17, 9.96, 10.01, 10.81, 11.97, 13.15, 14.11, 14.71, 14.75, 14.75, 15.2, 14.72, 14.72, 14.62, 14.64, 14.5, 14.5, 14.31, 13.88, 14.5, 14.06, 14.06, 13.75, 13.74, 14.62, 15.51, 15.53, 17.1, 17.19, 15.69, 14.84, 15.09, 14.55, 14.26, 13.86, 14.75, 15.2, 15.2, 11.09, 3.68, -0.0, -0.0, -0.0, 1.39, 4.58, 5.99, 5.77, 5.54, 6.2, 6.8, 5.18, 6.2, 6.65, 7.54, 9.48, 10.55, 9.62, 9.47, 9.47, 9.48, 9.84, 9.84, 10.47, 10.76, 10.43, 10.4, 10.09, 9.46, 8.24, 8.93, 9.08, 9.43, 10.2, 10.4, 10.4, 10.2, 10.6, 11.26, 10.87, 9.67, 9.08, 2.95, 0.0, 0.0, 0.0, 0.0, 0.0, 0.0, 0.0, 0.0, 1.38, 2.35, 4.52, 6.8, 6.88, 5.2, 5.72, 7.19, 8.67, 9.97, 11.69, 12.17, 13.15, 13.88, 14.11, 14.71, 15.2, 14.75, 14.3, 14.27, 14.6, 14.47, 14.47, 14.25, 14.31, 14.31, 14.06, 14.18, 13.74, 13.74, 14.62, 14.6, 16.37, 16.55, 15.81, 16.39, 17.99, 18.16, 16.96, 17.78, 17.36, 15.65, 12.96, 13.86, 13.57, 9.8, 8.38, 3.56, -0.0, -1.5, -0.0, -0.0, 1.44, 4.75, 5.77, 6.65, 5.34, 5.02, 4.55, 4.93, 6.43, 9.17, 10.91, 10.55, 8.85, 9.47, 9.2, 9.48, 9.48, 10.13, 10.13, 10.76, 10.45, 10.4, 10.09, 8.85, 7.32, 8.53, 9.08, 9.58, 9.81, 9.81, 10.2, 9.43, 9.4, 9.52, 9.02, 9.48, 7.44, 1.77, 0.0, 0.0, 0.0, 0.0, 0.0, 0.0, 1.14, 2.23, 4.18, 5.4, 4.87, 6.0, 7.51, 5.14, 4.01, 5.18, 9.16, 10.43, 12.27, 13.02, 13.86, 14.51, 14.26, 14.3, 14.3, 13.82, 13.7, 13.5, 13.75, 14.18, 14.25, 14.25, 14.47, 14.5, 14.18, 13.83, 13.38, 14.71, 15.16, 15.91, 16.12, 15.31, 13.95, 14.67, 17.99, 20.22, 19.08, 17.68, 18.41, 18.22, 16.54, 13.23, 10.37, 7.78, 6.67, -0.0, -1.44, -1.39, -1.64, -1.64, -0.0, 3.32, 5.28, 4.05, 3.93, 3.56, 3.68, 6.0, 8.1, 9.96, 11.64, 9.96, 8.01, 9.2, 9.2, 9.48, 9.48, 10.13, 10.13, 9.84, 10.45, 10.43, 9.8, 8.53, 7.27, 8.22, 9.04, 10.55, 9.42, 10.0, 10.2, 9.67, 8.94, 8.94, 9.0, 8.73, 7.24, 2.06, 0.0, 0.0, 0.0, 0.0, 0.0, 0.0, 1.09, 3.99, 5.63, 6.71, 5.27, 5.6, 9.48, 0.0, 0.0, 1.77, 4.81, 11.44, 14.11, 15.43, 15.2, 16.01, 15.14, 13.63, 13.44, 13.57, 13.15, 13.35, 14.1, 13.75, 13.59, 14.03, 14.18, 14.27, 13.83, 13.41, 13.37, 15.15, 15.87, 15.06, 12.92, 12.63, 13.01, 13.99, 16.51, 19.51, 19.08, 16.76, 16.27, 16.58, 16.33, 14.11, 11.99, 7.44, -0.0, -0.0, -3.19, -5.4, -3.82, -4.48, -0.0, -0.0, 2.81, 2.35, -0.0, 1.9, 4.24, 6.9, 9.48, 11.16, 9.96, 8.01, 6.7, 8.81, 9.2, 9.48, 9.48, 9.49, 9.84, 9.84, 10.45, 10.13, 9.5, 8.24, 6.9, 8.22, 9.08, 10.04, 8.93, 9.9, 10.63, 9.9, 10.04, 9.65, 9.84, 10.96, 11.27, 10.6, 9.97, 10.28, 9.6, 11.62, 2.19, 1.58, 1.44, 3.07, 5.95, 7.36, 7.27, 0.0, -6.2, -12.52, -3.68, 0.0, 12.07, 11.2, 12.39, 11.8, 13.8, 13.68, 14.39, 13.19, 12.79, 11.39, 12.38, 12.93, 13.32, 13.55, 13.72, 13.83, 13.86, 13.41, 12.96, 12.07, 13.41, 15.15, 13.68, 10.69, 11.36, 13.74, 13.99, 13.99, 15.18, 17.64, 18.08, 16.04, 15.58, 15.12, 14.66, 14.16, 11.99, 3.14, -0.0, -0.0, -3.96, -7.54, -8.85, -8.85, -7.44, -3.25, -0.0, -0.0, -0.0, -0.0, 2.54, 6.9, 8.66, 9.48, 7.82, 6.7, 4.58, 8.81, 8.81, 9.48, 9.21, 9.49, 9.84, 10.13, 10.13, 10.13, 9.5, 7.95, 6.33, 7.19, 7.93, 8.53, 8.97, 9.34, 9.66, 9.67, 9.43, 9.48, 9.86, 10.73, 11.54, 12.03, 12.42, 8.05, 5.9, 9.97, 9.6, 3.82, 2.6, 7.59, 10.6, 11.02, 10.14, 4.8, -0.0, -0.0, 5.0, 6.94, 7.51, 8.85, 9.48, 11.17, 11.75, 13.39, 14.75, 14.13, 13.59, 13.48, 12.3, 13.07, 13.7, 13.82, 13.86, 13.86, 12.94, 12.39, 11.51, 12.37, 15.2, 13.2, 8.68, 8.64, 12.01, 14.71, 14.86, 13.99, 14.58, 16.05, 16.54, 16.54, 15.6, 14.75, 14.3, 13.86, 9.17, 2.2, 2.15, 2.81, -2.63, -11.44, -12.87, -12.14, -12.14, -10.79, -9.17, -8.85, -4.1, -0.0, -0.0, 4.81, 6.9, 7.44, 6.94, 5.2, 5.4, 8.81, 9.09, 9.48, 9.21, 9.49, 9.84, 10.13, 10.13, 10.13, 9.21, 7.96, 7.6, 6.97, 6.97, 8.72, 7.64, 7.93, 8.07, 8.53, 6.98, 7.59, 7.59, 9.46, 10.09, 11.02, 10.0, 6.95, 6.95, 10.41, 10.08, 10.73, -0.0, -0.0, 4.8, 8.22, 10.4, 7.59, 2.83, 5.98, 8.85, 8.53, 8.85, 9.66, 10.4, 10.88, 11.6, 12.25, 12.79, 13.74, 13.99, 13.62, 13.99, 13.88, 13.67, 13.81, 14.3, 13.86, 11.93, 10.89, 11.87, 14.66, 12.92, 6.87, 6.19, 9.47, 12.33, 14.46, 14.17, 13.39, 14.3, 14.72, 15.34, 15.55, 15.38, 15.09, 13.15, 13.41, 4.32, 1.71, 3.93, 6.8, 5.23, -5.23, -13.02, -13.86, -13.41, -13.86, -13.86, -13.41, -11.6, -4.1, -0.0, -0.0, 4.81, 5.8, 5.6, 3.96, 4.93, 8.83, 8.83, 8.83, 9.21, 9.49, 9.84, 10.13, 10.13, 10.13, 9.21, 8.87, 7.96, 8.24, 8.24, 9.48, 8.12, 8.07, 8.85, 9.17, 10.59, 10.69, 11.1, 11.09, 9.77, 12.96, -0.0, -0.0, 4.4, 9.33, 9.54, 8.55, 3.49, 1.93, 5.9, 7.87, 10.4, 9.3, 7.26, 7.56, 9.42, 10.23, 10.41, 10.16, 11.45, 11.03, 10.88, 10.8, 10.94, 11.6, 11.99, 13.19, 14.39, 14.94, 14.71, 14.71, 14.79, 15.69, 13.86, 8.8, 11.99, 3.42, 3.2, 4.86, 6.74, 8.11, 10.52, 13.59, 14.88, 14.61, 12.48, 13.05, 13.56, 14.39, 14.13, 12.65, 11.16, 8.22, 1.58, 2.02, 5.99, 7.54, 8.68, 3.16, -0.0, -14.39, -14.31, -14.75, -15.2, -13.88, -11.99, -8.85, -3.04, -0.0, 2.45, 3.82, 3.56, 3.56, 5.11, 8.83, 8.83, 8.83, 9.21, 9.49, 9.84, 10.13, 9.84, 10.13, 9.5, 8.59, 8.59, 8.87, 9.17, 9.59, 9.86, 10.53, 11.27, 11.97, 13.25, 13.99, 14.62, 14.27, 15.65, 13.01, 5.6, -0.0, -0.0, 7.59, 9.6, 10.0, 8.38, 7.59, 8.03, 9.2, 9.86, 8.73, 8.82, 8.82, 10.04, 10.41, 10.55, 10.62, 11.03, 9.96, 9.45, 10.35, 9.77, 11.12, 11.88, 11.64, 12.56, 13.28, 10.66, 7.81, 7.81, 9.77, 15.02, 0.0, -9.8, -0.0, 2.42, 4.49, 5.41, 5.41, 7.57, 12.72, 16.12, 16.48, 16.99, 10.43, 9.13, 9.71, 10.75, 7.54, 7.59, -0.0, 1.83, 4.95, 7.0, 9.35, 10.3, 8.74, -0.0, -0.0, -19.22, -17.43, -13.59, -11.8, -11.09, -10.01, -6.97, -2.28, -0.0, 1.77, 3.56, 3.56, 5.11, 8.83, 8.83, 8.83, 9.21, 9.49, 9.84, 10.13, 9.84, 10.13, 9.5, 9.21, 8.87, 8.87, 9.48, 10.01, 11.22, 11.95, 12.54, 13.25, 13.77, 14.29, 14.75, 15.2, 14.73, 14.19, 13.53, 11.16, 5.8, 8.53, 8.8, 10.96, 10.0, 8.93, 9.45, 8.93, 8.93, 8.72, 9.48, 9.48, 9.77, 10.62, 11.03, 10.6, 9.54, 10.08, 8.58, 6.97, 8.53, 10.37, 10.73, 8.85, 9.48, 7.1, 3.69, 2.79, 5.04, 11.16, 16.12, 16.09, -4.75, -0.0, 3.24, 5.51, 5.41, 5.04, 6.77, 10.0, 13.12, 10.17, -0.0, -4.38, 0.0, 3.93, 4.08, 1.62, -0.0, 1.63, 5.09, 7.82, 9.92, 11.38, 12.56, 12.36, 9.17, 5.37, 8.4, -0.0, -8.0, -5.98, -5.31, -6.2, -3.68, -3.07, -0.0, -0.0, 1.83, 3.56, 5.28, 8.18, 8.57, 8.83, 8.83, 9.49, 9.84, 10.13, 9.84, 10.13, 9.82, 9.21, 9.19, 8.87, 9.48, 10.06, 10.51, 11.75, 12.53, 12.94, 13.63, 14.17, 14.25, 14.75, 14.75, 14.29, 14.27, 13.53, 12.74, 12.33, 12.04, 10.62, 10.58, 10.38, 8.8, 9.04, 8.54, 8.34, 8.37, 8.72, 9.8, 10.47, 10.04, 10.58, 10.08, 8.8, 6.17, 5.86, 7.9, 8.22, 8.85, 8.85, 8.53, 5.4, 2.93, 5.6, 6.94, 12.52, 18.24, 21.04, 3.81, -0.0, 3.07, 4.75, 5.37, 5.23, 6.84, 7.21, 7.77, 9.6, 7.21, -10.6, -7.07, 0.0, 0.0, 11.18, 3.2, 5.65, 7.8, 10.19, 12.01, 12.9, 13.23, 13.27, 14.42, 8.68, 7.4, 6.64, -0.0, -0.0, -0.0, -0.0, -0.0, -1.39, -0.0, -0.0, 1.83, 3.56, 3.56, 8.18, 8.57, 8.57, 9.12, 9.49, 9.84, 10.13, 9.84, 10.13, 9.82, 9.5, 9.19, 9.48, 9.48, 9.78, 10.23, 11.07, 12.28, 12.83, 13.26, 13.1, 13.65, 14.25, 14.29, 14.3, 13.84, 13.67, 13.27, 12.85, 13.15, 12.45, 10.28, 10.96, 10.08, 9.55, 8.82, 8.38, 8.0, 10.0, 9.6, 10.22, 10.73, 9.7, 9.13, 5.9, 5.9, 4.4, 6.17, 7.59, 7.9, 8.22, 7.9, 6.44, 4.2, 5.9, 7.59, 10.4, 13.77, 18.08, 13.39, 4.1, 4.55, 6.88, 7.93, 8.18, 7.82, 8.51, 10.61, 12.57, 17.25, 20.56, -3.53, -4.99, 0.0, 3.25, 5.94, 8.78, 11.17, 12.01, 13.41, 15.24, 14.85, 14.53, 13.31, 11.6, 5.64, 4.18, 4.42, 3.9, 4.54, 4.67, 1.66, -0.0, -0.0, -0.0, 1.83, 1.83, 1.83, 8.46, 8.85, 8.85, 8.85, 9.49, 9.49, 10.13, 9.84, 10.13, 9.82, 9.5, 9.19, 9.48, 10.11, 9.78, 10.35, 10.51, 11.75, 12.62, 13.09, 13.26, 13.1, 13.65, 14.69, 14.75, 14.73, 13.62, 13.55, 13.11, 13.28, 13.37, 12.07, 10.28, 10.73, 10.08, 7.76, 8.37, 8.72, 10.18, 10.14, 9.39, 9.03, 8.82, 6.95, 5.9, 4.2, 3.65, 6.17, 6.17, 8.23, 8.94, 8.22, 6.97, 7.59, 7.51, 9.13, 10.08, 11.62, 14.31, 11.88, 6.92, 7.44, 8.22, 9.42, 10.35, 11.12, 10.79, 13.03, 13.8, 18.26, 19.19, 0.0, -5.94, -0.0, 4.47, 9.09, 12.31, 13.89, 14.82, 15.72, 16.39, 16.75, 16.12, 14.31, 9.42, 3.07, 3.25, 3.14, 3.14, 3.36, 5.49, 2.81, 2.54, 2.91, 3.04, 2.93, 3.04, 3.04, 8.46, 8.85, 8.85, 8.85, 9.22, 9.49, 10.13, 9.84, 10.13, 10.12, 9.8, 9.19, 9.8, 10.11, 10.09, 10.09, 10.59, 11.22, 11.6, 12.33, 12.78, 12.94, 13.19, 13.8, 14.3, 14.23, 14.57, 14.65, 14.64, 14.3, 13.41, 12.93, 11.14, 11.18, 8.85, 8.15, 8.54, 9.96, 10.08, 9.64, 9.13, 6.98, 7.27, 5.72, 5.9, 5.06, 5.29, 5.29, 7.27, 8.23, 8.23, 8.58, 8.73, 8.38, 9.2, 9.2, 9.89, 10.32, 10.48, 9.84, 8.85, 8.59, 8.93, 9.6, 10.18, 9.45, 10.79, 11.28, 12.39, 16.91, 20.78, 0.0, -0.0, 7.18, 8.87, 12.13, 14.12, 15.59, 16.37, 16.48, 15.99, 15.93, 15.19, 13.2, 10.12, 4.58, 3.32, 3.14, 3.25, 4.38, 4.66, 3.85, 3.6, 4.81, 4.1, 3.82, 4.39, 4.39, 8.2, 8.85, 8.85, 8.85, 9.22, 9.22, 9.84, 9.84, 10.13, 10.12, 9.8, 9.8, 9.8, 10.11, 10.09, 10.06, 10.65, 11.34, 11.6, 12.11, 12.46, 13.08, 13.17, 13.4, 13.4, 14.23, 15.18, 15.2, 15.2, 15.08, 14.5, 13.11, 11.87, 11.0, 10.73, 10.18, 9.33, 9.97, 9.54, 9.13, 7.87, 5.9, 5.9, 6.17, 7.27, 6.42, 6.7, 7.27, 8.03, 8.82, 8.82, 8.82, 8.03, 8.03, 8.55, 9.2, 9.2, 8.93, 8.59, 9.09, 9.82, 10.09, 9.86, 10.32, 10.58, 9.76, 9.39, 10.28, 12.07, 15.65, 20.12, 18.84, 15.22, 14.55, 12.81, 13.82, 15.33, 16.57, 17.59, 16.79, 14.95, 15.63, 14.55, 7.79, 6.21, 4.93, 5.11, 3.14, 3.25, 4.52, 4.52, 4.1, 3.34, 4.12, 6.3, 6.87, 5.08, 5.08, 8.2, 8.2, 8.58, 8.85, 9.22, 9.5, 9.84, 9.84, 10.13, 10.12, 9.8, 10.09, 9.8, 10.11, 9.78, 10.92, 9.94, 10.3, 10.55, 11.21, 12.94, 14.27, 13.32, 13.18, 12.49, 13.8, 12.81, 13.63, 13.15, 13.27, 13.27, 12.04, 10.94, 11.03, 10.84, 10.73, 10.28, 10.73, 11.18, 10.52, 9.04, 8.55, 8.94, 8.94, 8.22, 8.38, 8.38, 8.82, 9.2, 9.2, 9.2, 8.82, 8.03, 8.03, 8.03, 8.03, 8.55, 8.59, 9.27, 10.09, 10.68, 11.18, 10.75, 9.77, 9.77, 9.39, 9.39, 10.2, 10.66, 14.3, 17.53, 18.43, 20.32, 21.49, 15.52, 15.01, 15.82, 16.22, 16.33, 16.54, 14.13, 13.24, 11.38, 8.15, 7.79, 6.65, 5.28, 4.55, 4.71, 3.85, 4.52, 3.85, 3.47, 5.2, 7.69, 8.58, 6.2, 6.2, 8.2, 8.2, 8.58, 8.85, 9.5, 9.5, 9.5, 9.84, 10.13, 10.12, 9.8, 10.09, 9.8, 10.11, 10.11, 9.76, 9.71, 9.37, 10.29, 10.87, 13.11, 13.97, 13.86, 12.23, 11.6, 12.1, 12.51, 12.72, 13.67, 12.96, 11.2, 7.51, 8.53, 8.53, 9.67, 10.32, 10.73, 10.73, 10.73, 10.22, 10.28, 9.8, 10.21, 9.48, 9.48, 9.97, 8.82, 8.82, 9.75, 9.33, 9.33, 8.03, 7.59, 6.98, 6.95, 6.95, 8.59, 8.47, 8.93, 10.68, 10.75, 10.62, 10.73, 10.73, 10.28, 10.28, 10.28, 11.09, 12.07, 13.19, 15.9, 18.02, 22.65, 25.59, 20.91, 16.54, 16.07, 16.05, 16.27, 14.85, 12.52, 12.56, 11.54, 9.48, 9.8, 8.73, 7.79, 6.43, 4.55, 3.96, 4.24, 3.85, 4.81, 6.3, 8.51, 10.01, 7.82, 7.82, 8.2, 8.2, 8.86, 8.86, 9.21, 9.5, 9.5, 10.13, 9.82, 10.12, 10.12, 10.09, 10.09, 10.11, 10.11, 10.35, 10.3, 9.46, 9.42, 10.63, 12.27, 13.29, 13.14, 12.52, 12.51, 12.79, 13.39, 12.81, 12.07, 11.62, 11.62, 0.0, 4.32, 5.98, 9.97, 11.02, 11.18, 10.73, 10.73, 11.18, 11.11, 10.91, 10.6, 11.3, 10.4, 11.21, 9.13, 9.75, 10.14, 10.14, 8.43, 7.27, 6.7, 6.98, 6.7, 6.69, 8.41, 8.35, 10.09, 10.75, 11.06, 11.18, 10.73, 11.18, 10.28, 10.73, 10.73, 11.98, 11.85, 12.39, 13.2, 16.39, 22.3, 25.03, 19.53, 16.85, 16.96, 17.77, 15.9, 11.68, 11.06, 11.88, 11.2, 9.48, 9.8, 9.48, 8.59, 7.79, 7.11, 4.24, 3.96, 5.45, 6.95, 8.23, 9.21, 10.43, 8.85, 8.85, 8.22, 8.49, 8.86, 8.86, 8.86, 9.21, 9.21, 9.5, 9.82, 10.12, 10.12, 10.42, 10.09, 10.11, 10.11, 10.39, 10.35, 10.41, 10.76, 11.96, 12.27, 12.64, 12.03, 11.39, 11.76, 12.62, 13.65, 12.74, 12.04, 12.07, 12.0, 10.79, 6.97, 6.97, 10.79, 11.02, 11.62, 11.62, 11.18, 11.18, 11.18, 11.09, 10.84, 11.71, 10.27, 9.6, 10.18, 9.7, 10.14, 9.55, 7.27, 5.52, 5.52, 6.98, 6.7, 6.98, 7.65, 8.85, 10.09, 10.32, 10.22, 10.73, 11.18, 11.12, 11.11, 11.18, 11.53, 9.16, 7.96, 9.44, 11.06, 16.74, 21.87, 24.14, 5.9, 8.85, 14.13, 18.78, 8.0, 7.2, 8.68, 10.76, 10.47, 9.89, 9.31, 8.73, 9.48, 8.31, 7.82, 5.4, 4.9, 6.0, 8.2, 9.5, 10.69, 10.12, 7.82, 7.82, 8.22, 8.22, 8.22, 8.86, 8.86, 9.21, 9.5, 9.5, 9.82, 10.12, 10.12, 10.42, 10.42, 10.39, 10.39, 10.7, 10.7, 11.01, 11.36, 12.32, 12.77, 12.12, 11.57, 11.92, 11.99, 12.2, 12.74, 13.23, 12.58, 12.33, 11.86, 11.33, 11.13, 10.88, 11.51, 11.62, 11.62, 11.62, 11.62, 11.62, 11.62, 11.53, 11.53, 11.28, 10.68, 10.46, 9.96, 9.21, 8.72, 7.27, 5.29, 5.52, 6.7, 6.98, 6.7, 6.7, 7.27, 8.54, 9.96, 8.4, 9.16, 10.28, 11.62, 11.53, 11.18, 10.75, 8.22, 5.43, 6.45, 8.15, 10.82, 15.99, -25.02, -13.86, -8.05, -9.39, -8.85, -3.69, -0.0, -0.0, 3.81, 6.16, 9.09, 9.09, 9.6, 9.02, 9.8, 10.12, 8.83, 8.83, 6.3, 7.44, 8.78, 10.12, 10.12, 9.42, 7.58, 7.58, 8.22, 8.22, 8.22, 8.59, 8.86, 9.5, 9.5, 9.5, 9.5, 10.12, 10.12, 10.42, 10.42, 10.73, 10.39, 10.7, 11.04, 11.04, 11.6, 11.6, 12.09, 11.99, 11.54, 11.87, 12.37, 12.63, 12.33, 12.74, 12.72, 12.37, 12.18, 11.71, 11.4, 11.05, 11.13, 11.18, 11.18, 11.18, 11.62, 11.62, 11.62, 11.53, 11.53, 11.28, 11.18, 10.75, 12.27, 10.38, 9.2, 7.9, 7.26, 7.9, 7.59, 6.44, 5.29, 5.29, 6.58, 8.53, 10.12, 9.67, 8.22, 9.03, 11.06, 11.18, 10.0, 7.02, 5.86, 6.21, 6.2, 8.49, 10.27, 20.56, 25.93, -0.0, -14.79, -11.16, -7.44, -3.14, -3.58, -4.81, -0.0, 2.35, 5.81, 7.1, 9.44, 10.43, 10.43, 9.44, 8.83, 10.47, 9.02, 8.83, 9.8, 9.8, 9.42, 8.58, 7.34, 7.34, 8.22, 8.22, 8.22, 8.59, 8.59, 8.87, 9.21, 9.21, 9.8, 10.12, 10.12, 10.42, 10.42, 10.73, 10.73, 11.04, 11.04, 10.7, 11.23, 11.23, 11.72, 11.99, 12.23, 11.95, 12.08, 12.22, 12.8, 12.72, 12.72, 12.72, 12.37, 12.58, 12.3, 11.52, 11.14, 10.68, 11.18, 11.18, 11.18, 11.62, 11.62, 11.62, 11.09, 11.09, 10.84, 10.41, 11.55, 10.52, 9.49, 9.13, 9.8, 10.73, 8.58, 6.44, 5.29, 6.17, 7.27, 7.68, 9.3, 9.77, 9.3, 8.4, 8.54, 8.73, 7.44, 5.86, 5.4, 6.21, 7.41, 10.88, 13.41, 15.59, 21.9, 27.63, 26.89, -0.0, -12.64, -8.05, -6.4, -6.9, -5.15, -2.72, -0.0, 4.24, 8.18, 10.43, 9.44, 9.44, 9.89, 11.06, 12.01, 10.43, 10.12, 9.6, 8.05, 8.31, 7.34, 7.34, 7.96, 7.96, 8.22, 8.87, 8.87, 8.87, 9.21, 9.21, 9.5, 9.8, 10.12, 10.42, 10.42, 10.73, 10.73, 10.7, 10.7, 10.7, 11.23, 11.23, 11.53, 11.72, 12.26, 12.12, 12.36, 12.16, 12.3, 12.22, 12.37, 12.37, 12.37, 12.58, 12.27, 11.84, 11.51, 11.14, 10.69, 10.73, 11.18, 11.18, 11.18, 11.62, 11.11, 11.11, 10.47, 10.47, 11.57, 10.24, 9.79, 9.79, 11.11, 10.27, 8.85, 6.21, 5.75, 5.52, 8.23, 7.87, 8.23, 9.3, 10.04, 10.48, 7.96, 8.0, 6.5, 5.86, 5.6, 6.94, 10.37, 11.72, 12.0, 14.3, 16.99, 24.09, 26.99, 26.11, -15.49, -15.33, -8.22, -8.22, -9.48, -8.31, -2.98, -0.0, 4.52, 7.0, 8.43, 9.44, 10.43, 10.75, 12.01, 12.36, 10.01, 9.39, 8.31, 8.31, 9.02, 9.02, 7.96, 7.96, 7.96, 8.87, 8.87, 8.87, 9.21, 9.21, 9.5, 9.8, 9.8, 10.42, 10.42, 10.73, 10.73, 10.7, 10.7, 10.94, 11.23, 11.23, 11.53, 11.72, 11.61, 11.87, 12.12, 11.95, 12.16, 12.08, 12.3, 12.44, 12.37, 12.14, 12.14, 11.84, 11.8, 11.51, 11.49, 11.14, 10.68, 10.28, 11.18, 11.62, 11.55, 10.47, 10.04, 10.96, 11.13, 10.28, 9.83, 9.83, 10.73, 9.58, 6.58, 5.1, 6.2, 7.59, 8.58, 8.23, 6.64, 7.27, 10.35, 10.21, 10.27, 8.73, 6.94, 5.64, 6.7, 9.76, 10.99, 12.3, 12.9, 13.41, 14.75, 16.99, 20.06, 27.27, 0.0, -19.67, -9.7, -9.13, -9.97, -10.37, -8.58, -4.81, -0.0, 2.43, 7.0, 10.02, 10.75, 10.43, 10.75, 11.7, 11.48, 10.76, 9.89, 10.12, 10.12, 10.12, 7.57, 7.57, 8.23, 8.23, 8.87, 8.87, 8.87, 9.5, 9.5, 9.5, 10.12, 10.12, 10.42, 10.73, 10.73, 10.39, 10.94, 10.59, 10.87, 10.87, 11.16, 11.16, 11.44, 11.44, 11.72, 11.99, 11.85, 11.85, 11.67, 11.87, 11.87, 11.58, 11.58, 11.71, 11.66, 11.36, 11.33, 11.05, 11.02, 10.68, 11.18, 11.62, 11.11, 10.22, 9.79, 10.68, 10.28, 10.28, 9.83, 10.28, 10.38, 7.59, 6.24, 5.98, 5.95, 8.22, 8.94, 8.58, 5.7, 7.27, 10.27, 10.6, 10.7, 9.66, 6.97, 7.28, 9.48, 10.01, 11.45, 12.9, 14.3, 14.3, 13.36, 13.81, 15.2, 19.59, 18.95, -13.59, -13.32, -10.28, -10.75, -11.03, -11.5, -8.85, -5.6, -0.0, 5.48, 9.77, 11.06, 10.43, 11.2, 11.77, 11.7, 11.19, 10.76, 11.06, 11.68, 11.68, 7.57, 7.57, 8.23, 8.23, 8.59, 8.59, 8.87, 9.5, 9.5, 9.5, 9.8, 10.12, 10.42, 10.42, 10.73, 10.39, 10.59, 10.59, 10.87, 10.87, 11.16, 10.79, 11.06, 11.44, 11.72, 11.33, 11.6, 11.85, 11.67, 11.67, 11.45, 11.45, 11.58, 11.58, 11.28, 11.23, 11.36, 10.89, 11.02, 10.56, 11.12, 11.18, 11.18, 11.95, 11.61, 9.55, 9.34, 9.74, 10.28, 10.08, 7.9, 6.98, 6.69, 6.69, 7.59, 7.59, 8.53, 6.97, 7.59, 7.9, 10.27, 10.84, 11.3, 9.5, 7.95, 9.17, 10.43, 10.94, 11.35, 11.62, 13.79, 14.51, 13.67, 13.01, 13.88, 17.78, 21.48, 17.19, -8.4, -16.99, -11.98, -9.89, -11.87, -10.35, -7.78, -3.25, -0.0, 8.85, 10.75, 11.68, 12.0, 12.89, 13.68, 12.11, 12.9, 13.82, 12.71, 12.71, 7.57, 7.57, 8.23, 8.23, 8.59, 8.59, 8.87, 9.19, 9.5, 9.5, 9.8, 9.8, 10.12, 10.42, 10.73, 10.39, 10.35, 10.59, 10.51, 10.51, 10.79, 10.79, 11.06, 10.88, 11.17, 11.17, 11.46, 11.6, 11.44, 11.67, 11.87, 11.45, 11.45, 10.96, 11.15, 11.09, 11.23, 10.93, 10.89, 10.58, 10.56, 10.68, 11.18, 10.73, 10.46, 10.68, 11.06, 10.08, 7.27, 7.27, 7.9, 7.74, 7.27, 7.81, 8.24, 8.38, 7.68, 8.73, 9.08, 8.73, 9.86, 10.46, 10.8, 8.82, 9.66, 9.5, 10.18, 11.9, 10.46, 9.83, 10.05, 13.15, 16.03, 16.93, 16.12, 18.73, 19.47, 17.43, 18.33, 19.08, -16.81, -12.04, -11.18, -11.87, -9.3, -7.93, -0.0, 6.4, 11.52, 12.81, 13.81, 14.65, 14.84, 12.73, 13.1, 15.14, 13.39, 13.39, 7.57, 7.57, 7.85, 8.23, 8.23, 8.59, 8.87, 9.19, 9.19, 9.19, 9.8, 9.8, 9.8, 10.09, 10.39, 10.06, 10.01, 10.23, 10.51, 10.51, 10.79, 10.79, 10.59, 10.88, 11.17, 11.17, 11.17, 11.06, 11.44, 11.44, 11.67, 11.67, 11.45, 11.38, 10.96, 10.67, 10.6, 10.75, 10.45, 10.41, 10.56, 10.52, 10.66, 10.73, 10.73, 12.07, 11.98, 9.38, 8.12, 8.82, 8.93, 8.55, 8.72, 8.73, 8.73, 8.93, 8.82, 9.97, 9.2, 9.58, 10.27, 10.88, 10.24, 9.86, 10.8, 10.4, 10.09, 11.12, 10.35, 9.64, 8.49, 11.06, 15.27, 22.12, 21.01, 17.84, 16.35, 14.75, 16.49, 18.16, 14.26, -11.53, -12.83, -13.23, -13.59, -14.3, 14.3, 12.79, 13.28, 14.18, 14.64, 14.66, 15.08, 15.53, 14.65, 14.79, 12.01, 12.01, 7.85, 7.85, 7.85, 8.23, 8.23, 8.23, 8.87, 8.87, 9.19, 9.19, 9.48, 9.48, 9.8, 9.48, 10.06, 9.72, 9.72, 10.01, 10.23, 10.51, 10.15, 10.59, 10.59, 10.88, 10.88, 11.17, 10.79, 10.67, 11.6, 10.52, 11.44, 11.44, 11.44, 11.25, 11.38, 10.96, 10.46, 10.6, 10.32, 10.25, 9.97, 10.56, 10.68, 10.66, 10.73, 11.18, 11.12, 10.08, 9.77, 10.0, 9.96, 9.4, 9.8, 9.6, 9.2, 8.93, 10.0, 9.58, 9.96, 9.75, 11.45, 10.68, 10.88, 10.6, 11.03, 10.84, 10.18, 11.62, 12.27, 11.91, 9.63, 8.37, 11.53, 17.81, 28.49, 19.67, 13.41, 11.18, 13.27, 15.09, 14.66, 13.58, -13.99, -14.3, -14.75, -14.42, 0.0, 13.19, 14.3, 13.86, 13.86, 14.3, 14.75, 15.2, 14.75, 13.99, 7.2, 7.2, 7.59, 7.59, 7.59, 7.59, 7.96, 7.96, 8.87, 8.87, 9.19, 9.19, 9.48, 9.48, 9.48, 9.48, 9.46, 9.72, 9.72, 9.72, 10.01, 9.94, 9.94, 10.23, 10.23, 10.51, 10.51, 10.79, 10.79, 10.79, 10.67, 11.6, 10.13, 10.67, 10.67, 10.92, 11.16, 10.65, 10.88, 10.38, 10.52, 10.25, 9.75, 10.35, 10.52, 10.66, 11.18, 10.73, 10.73, 10.24, 10.56, 10.28, 9.85, 9.75, 10.6, 10.05, 9.63, 9.86, 9.86, 9.6, 9.2, 10.18, 9.86, 10.32, 11.03, 10.05, 10.84, 10.84, 10.62, 10.28, 11.62, 12.83, 11.56, 10.0, 11.13, 16.04, 28.11, 23.65, 14.6, 11.28, 12.18, 12.79, 14.79, 15.85, 15.36, -16.54, -14.79, -9.17, 0.0, 3.69, 14.3, 13.41, 12.96, 13.41, 13.86, 14.3, 12.27, 10.75, 4.18, 4.18, 7.59, 7.59, 7.59, 7.59, 7.96, 7.96, 8.24, 8.58, 8.87, 9.19, 9.48, 9.48, 9.48, 9.17, 9.46, 9.72, 9.72, 9.72, 10.01, 9.66, 9.94, 10.23, 10.23, 10.51, 10.51, 10.51, 10.79, 10.79, 10.79, 10.67, 10.52, 10.52, 10.4, 10.8, 10.8, 10.4, 10.53, 10.79, 10.27, 10.01, 10.18, 9.97, 10.35, 10.68, 10.73, 10.28, 10.28, 10.28, 10.68, 10.68, 10.52, 10.91, 10.47, 9.63, 9.63, 9.63, 9.45, 9.04, 9.2, 9.6, 11.62, 10.38, 10.38, 10.38, 9.45, 10.32, 10.62, 10.62, 11.62, 12.35, 11.87, 12.04, 12.39, 15.2, 23.69, 25.89, 18.28, 14.93, 13.07, 13.72, 15.82, 16.5, 16.44, 16.99, -14.79, -5.98, 0.0, 3.69, 14.03, 13.41, 12.52, 12.52, 12.52, 12.72, 6.9, 5.81, 3.69, 3.69, 7.59, 7.59, 7.59, 7.59, 7.59, 7.96, 8.24, 8.24, 8.58, 8.87, 9.48, 9.48, 9.48, 9.17, 9.17, 9.46, 9.46, 9.46, 9.66, 9.66, 9.94, 9.94, 10.23, 10.23, 10.51, 10.51, 10.79, 10.79, 10.79, 10.94, 10.8, 10.52, 10.52, 10.4, 10.26, 10.26, 10.09, 10.4, 10.15, 10.43, 9.9, 9.75, 9.92, 10.56, 10.23, 10.28, 9.83, 10.28, 10.28, 10.73, 10.68, 11.11, 10.47, 9.63, 10.05, 9.2, 8.8, 8.8, 9.21, 9.45, 9.04, 10.79, 9.96, 10.38, 10.6, 10.38, 10.32, 10.84, 10.84, 12.0, 12.22, 13.72, 14.19, 15.65, 19.67, 21.31, 20.07, 17.66, 16.54, 17.74, 17.43, 16.94, 15.53, 15.2, -14.84, -7.59, 0.0, 10.43, 13.41, 12.52, 12.39, 12.39, 11.62, 7.51, 4.1, 1.83, 3.58, 3.58, 7.59, 7.59, 7.59, 7.59, 7.59, 7.96, 8.24, 8.24, 8.58, 8.58, 9.48, 9.48, 9.48, 9.17, 9.17, 9.46, 9.46, 9.13, 9.42, 9.42, 9.71, 9.59, 10.23, 10.23, 10.23, 10.51, 10.51, 10.79, 10.79, 10.79, 10.94, 10.8, 10.62, 10.11, 10.0, 9.86, 10.0, 9.84, 9.84, 10.0, 9.9, 10.18, 9.92, 9.68, 9.68, 9.79, 9.79, 10.24, 10.23, 10.73, 10.73, 10.66, 9.97, 10.05, 9.2, 8.99, 8.99, 8.8, 9.21, 9.63, 9.63, 8.22, 10.52, 9.89, 9.97, 11.02, 9.97, 10.47, 11.11, 11.09, 12.96, 12.88, 15.53, 16.82, 19.18, 17.4, 17.31, 19.53, 21.31, 19.22, 19.18, 15.61, 10.12, 12.96, -11.99, -12.96, 12.96, 10.41, 11.62, 12.3, 12.3, 12.3, 10.37, 4.81, 2.06, 2.13, 3.81, 3.81, 7.59, 7.59, 7.59, 7.59, 7.59, 7.59, 8.24, 8.24, 8.24, 8.58, 8.58, 9.17, 9.17, 9.17, 9.17, 9.17, 9.13, 9.13, 9.42, 9.42, 9.08, 9.37, 9.59, 9.86, 9.86, 9.86, 10.13, 10.13, 10.13, 10.4, 10.4, 10.55, 10.8, 10.4, 10.11, 10.24, 10.13, 10.0, 10.15, 10.0, 9.9, 9.77, 9.92, 10.91, 9.24, 9.68, 10.12, 10.12, 10.23, 10.73, 10.73, 10.47, 9.75, 9.8, 8.99, 8.99, 8.99, 8.58, 9.33, 9.54, 9.54, 9.11, 10.08, 9.74, 10.65, 11.06, 9.76, 10.28, 10.73, 10.73, 11.62, 12.86, 15.49, 18.41, 20.85, 17.88, 13.86, 16.99, 22.31, 22.31, 18.73, 14.7, 8.38, -0.0, -1.98, -0.0, 2.63, 5.8, 11.12, 12.3, 12.3, 11.5, 8.05, 4.98, 2.54, 2.54, 6.0, 4.98, 7.59, 7.59, 7.59, 7.59, 7.59, 7.59, 8.24, 8.24, 8.24, 8.58, 8.58, 8.87, 8.87, 9.17, 9.17, 9.17, 9.46, 9.13, 9.42, 9.08, 9.08, 9.37, 9.37, 9.59, 9.86, 9.86, 9.86, 10.13, 10.13, 10.13, 10.13, 10.4, 10.4, 10.27, 10.27, 10.11, 10.24, 10.13, 10.27, 9.6, 9.9, 9.77, 9.55, 11.55, 9.79, 9.7, 10.12, 10.08, 10.23, 10.73, 10.22, 9.75, 9.4, 9.55, 9.13, 8.72, 8.72, 8.99, 8.91, 9.6, 9.6, 9.11, 10.52, 9.29, 9.76, 10.73, 10.73, 10.28, 10.73, 11.18, 11.18, 12.79, 14.6, 17.23, 23.77, 22.62, 14.75, 14.9, 19.15, 19.58, 16.7, 14.03, 13.2, 7.59, 1.53, 1.66, 2.28, 8.31, 11.5, 11.99, 11.5, 10.73, 8.05, 6.0, 3.25, 5.8, 7.44, 6.0, 7.19, 7.19, 7.59, 7.59, 7.59, 7.59, 7.87, 8.24, 8.24, 8.24, 8.24, 8.87, 8.87, 8.87, 9.17, 9.46, 9.13, 9.13, 9.42, 9.08, 9.08, 9.08, 9.37, 9.37, 9.59, 9.86, 9.86, 9.86, 10.13, 10.13, 10.13, 10.13, 10.4, 10.4, 10.27, 10.27, 10.11, 10.24, 10.38, 9.86, 9.9, 9.36, 9.55, 9.42, 11.55, 9.8, 10.56, 10.68, 10.28, 10.22, 9.6, 9.13, 8.72, 8.72, 8.82, 8.82, 8.63, 8.56, 9.21, 9.21, 9.6, 9.33, 7.54, 9.83, 10.28, 10.28, 9.83, 10.28, 10.73, 11.18, 11.09, 11.53, 13.86, 15.53, 18.84, 25.45, 23.52, 16.04, 13.57, 12.58, 12.18, 11.77, 13.41, 7.44, 5.36, 6.73, 6.4, 8.85, 11.17, 12.39, 11.88, 11.09, 8.31, 6.2, 6.0, 7.44, 7.19, 7.44, 6.94, 6.94, 7.33, 7.33, 7.33, 7.6, 7.6, 7.96, 7.96, 7.96, 8.24, 8.24, 8.87, 8.87, 8.87, 8.85, 8.85, 8.85, 8.82, 8.82, 9.08, 9.08, 9.37, 9.37, 9.37, 9.59, 9.86, 9.86, 9.86, 9.86, 10.13, 9.76, 10.02, 10.02, 9.86, 10.13, 10.4, 10.0, 10.24, 9.96, 10.1, 9.6, 9.66, 9.66, 9.54, 11.12, 10.28, 10.28, 9.79, 9.64, 9.06, 8.82, 8.82, 8.63, 8.63, 8.63, 8.19, 8.8, 8.77, 9.21, 9.34, 9.33, 10.73, 9.83, 9.83, 10.28, 9.83, 10.73, 10.28, 11.09, 11.53, 11.62, 12.96, 13.86, 15.53, 18.79, 27.19, 25.87, 13.86, 12.79, 13.56, 14.31, 11.75, 7.69, 8.38, 9.8, 10.12, 10.43, 11.52, 12.79, 12.27, 10.12, 6.2, 8.31, 9.48, 7.19, 5.8, 5.8, 6.94, 6.94, 6.94, 7.33, 7.33, 7.6, 7.6, 7.96, 7.96, 8.24, 8.24, 8.24, 8.56, 8.56, 8.56, 8.85, 8.85, 8.85, 8.53, 8.82, 8.82, 9.08, 9.08, 9.37, 9.37, 9.59, 9.59, 9.59, 9.86, 9.86, 9.86, 9.76, 9.76, 9.86, 9.86, 10.13, 10.13, 10.4, 10.0, 10.13, 9.96, 10.1, 9.6, 9.75, 10.18, 10.6, 10.28, 9.81, 9.26, 9.11, 9.11, 8.67, 8.67, 8.67, 8.24, 8.38, 7.92, 8.36, 8.8, 8.9, 9.34, 8.94, 8.49, 9.83, 9.83, 9.83, 10.14, 10.28, 10.18, 11.09, 11.55, 11.18, 12.96, 12.44, 14.6, 16.09, 20.78, 29.3, 24.15, 16.68, 16.79, 15.63, 13.96, 11.63, 10.85, 12.11, 11.53, 11.44, 12.65, 13.57, 11.44, 6.4, 6.2, 9.48, 9.17, 5.8, 5.8, 5.8, 6.94, 6.94, 6.94, 6.94, 7.6, 7.6, 7.6, 7.6, 7.6, 8.24, 8.24, 8.24, 8.24, 8.56, 8.85, 8.85, 8.85, 8.85, 8.53, 8.82, 8.82, 9.08, 9.08, 9.08, 9.37, 9.37, 9.94, 9.94, 9.59, 9.86, 9.86, 9.76, 9.76, 9.58, 9.86, 9.86, 10.13, 9.97, 10.26, 10.13, 10.13, 9.96, 10.1, 10.32, 10.25, 10.89, 10.7, 9.83, 9.36, 8.91, 8.84, 8.82, 8.82, 8.82, 8.38, 8.38, 7.94, 8.02, 8.46, 8.9, 8.94, 8.94, 8.94, 10.73, 9.83, 9.7, 10.14, 10.58, 9.97, 10.84, 11.11, 10.73, 11.35, 12.71, 12.85, 14.95, 17.88, 22.78, 28.64, 24.39, 21.25, 20.18, 17.32, 16.64, 13.77, 13.37, 13.57, 12.79, 13.28, 13.28, 11.53, 7.69, 7.69, 9.48, 7.19, 5.8, 5.8, 5.8, 6.94, 6.94, 7.22, 7.22, 7.6, 7.6, 7.33, 7.33, 7.61, 7.95, 7.95, 8.24, 8.24, 8.85, 8.85, 8.85, 8.85, 8.53, 8.53, 8.82, 8.82, 8.82, 9.08, 9.42, 9.42, 9.71, 9.94, 9.94, 9.94, 9.86, 9.86, 9.5, 9.58, 9.58, 9.86, 9.86, 9.97, 9.97, 10.26, 9.86, 10.13, 9.96, 10.18, 10.1, 10.32, 10.49, 10.62, 10.26, 9.83, 9.83, 9.36, 9.36, 8.91, 8.91, 8.91, 8.46, 8.46, 8.02, 8.02, 8.49, 8.49, 8.94, 8.94, 8.49, 10.73, 9.7, 9.7, 9.11, 9.97, 10.65, 11.62, 10.22, 10.91, 11.99, 12.85, 14.07, 16.09, 18.14, 22.03, 24.7, 26.56, 26.21, 24.6, 18.14, 16.61, 15.12, 14.47, 13.99, 14.31, 13.01, 6.4, 6.94, 9.17, 9.17, 5.8, 2.45, 2.45, 2.45, 6.96, 6.96, 6.96, 6.96, 7.33, 7.33, 7.33, 7.61, 7.61, 7.61, 7.95, 7.95, 8.24, 8.24, 8.53, 8.53, 8.53, 8.53, 8.53, 8.53, 8.82, 8.82, 9.08, 9.08, 9.42, 9.42, 9.94, 9.94, 9.94, 9.59, 9.66, 9.3, 9.3, 9.58, 9.58, 9.86, 9.67, 9.97, 9.97, 10.09, 10.0, 10.13, 10.27, 10.1, 10.32, 10.49, 10.62, 10.26, 10.28, 9.83, 9.83, 9.39, 9.36, 8.91, 8.91, 8.47, 8.47, 8.02, 8.05, 8.05, 8.49, 8.49, 8.94, 9.34, 8.94, 10.28, 9.83, 8.94, 9.83, 10.28, 10.28, 10.66, 11.35, 12.27, 13.19, 13.8, 15.2, 16.05, 17.72, 18.57, 23.86, 29.44, 27.64, 22.36, 20.06, 16.54, 16.54, 16.09, 14.3, 12.39, 6.0, 8.53, 6.94, 5.6, 5.6, 2.37, 2.37, 2.37, 6.96, 6.96, 6.96, 6.96, 6.96, 7.61, 7.61, 7.61, 7.61, 7.61, 7.61, 7.95, 8.24, 8.24, 8.53, 8.53, 8.53, 8.53, 8.53, 8.53, 8.82, 8.82, 8.82, 9.08, 9.08, 9.42, 9.71, 9.94, 9.94, 9.59, 9.66, 9.3, 9.3, 9.58, 9.58, 9.86, 9.67, 9.97, 9.78, 9.7, 9.7, 10.0, 10.27, 10.52, 10.1, 10.32, 10.49, 10.18, 10.26, 10.28, 9.83, 9.39, 9.39, 8.94, 8.49, 8.49, 8.49, 8.05, 8.05, 8.05, 8.05, 8.49, 8.49, 8.9, 8.89, 9.83, 9.39, 9.39, 9.83, 9.77, 10.22, 11.11, 11.57, 12.45, 12.91, 13.41, 14.3, 15.2, 16.05, 16.17, 18.14, 24.75, 27.57, 25.79, 23.25, 12.96, 15.65, 14.75, 13.86, 9.17, 8.85, 6.94, 5.4, 5.4, 4.48, 1.98, 1.98, 1.98, 6.96, 6.96, 6.96, 6.97, 6.97, 7.24, 7.61, 7.61, 7.61, 7.61, 7.61, 7.95, 8.24, 8.24, 8.24, 8.53, 8.53, 8.53, 8.53, 8.82, 8.82, 8.82, 8.82, 9.08, 9.08, 9.42, 9.42, 9.94, 9.59, 9.59, 9.37, 9.3, 9.3, 9.3, 9.58, 9.37, 9.67, 9.58, 9.4, 9.7, 9.7, 10.0, 10.27, 10.27, 10.52, 10.32, 10.49, 10.18, 10.18, 10.26, 9.83, 9.83, 9.39, 8.94, 8.94, 8.49, 8.49, 8.05, 8.05, 8.05, 7.6, 8.05, 8.49, 8.9, 8.89, 10.28, 9.83, 9.39, 9.83, 9.83, 10.28, 10.68, 11.57, 12.01, 12.52, 13.41, 13.86, 14.3, 14.71, 15.25, 16.17, 19.44, 24.24, 25.74, 18.97, -17.59, 15.2, 12.96, 11.6, 11.2, 5.6, 3.82, 5.2, 5.0, 2.19, -0.0, -0.0, -0.0, 6.7, 6.7, 6.97, 6.97, 6.97, 6.97, 7.33, 7.33, 7.61, 7.61, 7.61, 7.61, 8.24, 8.24, 8.24, 8.53, 8.53, 8.53, 8.82, 8.82, 8.82, 8.82, 8.82, 9.08, 9.08, 9.08, 9.37, 9.37, 9.37, 9.37, 9.37, 9.3, 9.3, 9.08, 9.37, 9.37, 9.3, 9.3, 9.58, 9.7, 9.7, 10.0, 10.27, 10.27, 10.52, 10.75, 10.49, 10.49, 10.18, 10.26, 9.81, 9.83, 9.39, 8.94, 8.94, 8.49, 8.49, 8.05, 8.05, 8.05, 8.05, 7.6, 8.01, 8.45, 8.33, 8.87, 8.87, 9.39, 9.39, 9.83, 9.83, 10.24, 11.13, 12.02, 12.47, 12.96, 13.41, 13.41, 14.25, 14.55, 15.18, 15.81, 17.99, 20.83, -19.6, -20.38, 10.73, 9.2, 9.67, 8.85, 5.4, 3.68, 4.8, 4.6, -0.0, -1.33, -1.33, -1.33, 6.97, 6.97, 6.97, 6.97, 6.97, 6.97, 7.33, 7.33, 7.33, 7.61, 7.61, 7.61, 8.24, 8.24, 8.24, 8.24, 8.53, 8.82, 8.82, 8.82, 8.82, 8.82, 8.82, 9.08, 9.08, 9.08, 9.37, 9.37, 9.37, 9.37, 9.3, 9.3, 9.3, 9.01, 9.01, 9.3, 9.3, 9.58, 9.58, 9.86, 9.7, 10.0, 10.27, 10.27, 10.52, 10.8, 10.37, 10.52, 10.19, 10.19, 10.26, 9.81, 9.39, 8.94, 8.94, 8.49, 8.49, 8.05, 8.05, 8.05, 8.05, 7.57, 7.57, 7.92, 7.89, 8.87, 8.87, 9.39, 9.39, 9.83, 9.79, 9.79, 9.64, 11.0, 12.02, 12.47, 12.96, 12.96, 13.8, 14.51, 14.51, 14.23, 14.53, 16.3, 27.27, -18.78, -0.0, -0.0, 5.95, 6.2, 3.68, 2.82, 2.71, -0.0, -1.69, -2.39, -2.39, -2.39, 6.97, 6.97, 6.97, 6.97, 6.97, 6.97, 7.33, 7.33, 7.33, 7.33, 7.33, 7.61, 8.24, 8.24, 8.24, 8.24, 8.53, 8.82, 8.82, 8.82, 8.82, 8.82, 8.82, 9.08, 9.08, 9.37, 9.37, 9.37, 9.37, 9.3, 9.3, 9.3, 9.21, 9.01, 9.01, 9.3, 9.3, 9.58, 9.58, 9.86, 9.86, 10.13, 10.38, 10.38, 10.6, 10.8, 10.37, 10.52, 10.52, 10.19, 10.19, 9.81, 9.81, 8.94, 8.94, 8.49, 8.49, 8.05, 8.05, 8.02, 8.02, 7.57, 7.57, 7.48, 7.28, 7.01, 9.32, 9.33, 9.33, 9.77, 10.22, 10.23, 10.08, 9.42, 11.0, 11.44, 12.45, 12.96, 13.41, 13.8, 14.25, 14.03, 13.7, 16.48, -26.45, -17.11, -7.2, -0.0, -0.0, 2.6, 2.71, -0.0, -0.0, -1.84, -2.95, -3.45, -3.45, -3.45, 6.97, 6.97, 6.97, 6.97, 6.97, 7.26, 7.61, 7.61, 7.61, 7.61, 7.61, 7.9, 8.24, 8.24, 8.24, 8.24, 8.24, 8.53, 8.82, 8.82, 8.82, 8.82, 8.82, 8.82, 9.37, 9.37, 9.37, 9.02, 9.3, 9.3, 9.3, 9.21, 9.21, 9.01, 9.3, 9.3, 9.58, 9.58, 9.58, 9.86, 10.13, 10.13, 10.38, 10.38, 10.6, 10.6, 10.37, 10.37, 10.52, 10.19, 10.19, 9.81, 9.81, 8.92, 8.94, 8.49, 8.49, 8.49, 8.03, 8.02, 7.58, 7.58, 7.5, 7.5, 7.33, 7.28, 9.11, 9.16, 9.77, 9.39, 9.83, 10.28, 10.23, 10.04, 9.55, 10.7, 11.84, 12.45, 12.96, 12.96, 13.41, 13.79, 14.68, -0.0, -25.73, -16.37, -11.7, -5.8, -0.0, -0.0, -0.0, -0.0, -2.28, -4.58, -4.8, -4.18, -4.18, -4.18, 6.97, 6.97, 6.97, 6.97, 7.26, 7.26, 7.61, 7.61, 7.61, 7.61, 7.61, 7.9, 8.24, 8.24, 8.24, 8.24, 8.24, 8.24, 8.82, 8.82, 8.82, 8.82, 8.82, 9.12, 8.78, 9.02, 9.02, 9.3, 9.3, 9.3, 9.21, 9.21, 9.21, 9.3, 9.3, 9.3, 9.58, 9.58, 9.86, 9.86, 10.13, 10.13, 10.38, 10.38, 10.38, 10.6, 10.6, 10.37, 10.52, 10.08, 10.19, 9.75, 9.37, 8.92, 8.92, 8.47, 8.47, 8.47, 8.03, 8.03, 7.58, 7.51, 7.51, 7.5, 7.33, 7.28, 7.21, 7.42, 10.22, 10.28, 10.28, 10.28, 10.28, 10.28, 10.28, 10.41, 11.55, 12.01, 12.52, 12.45, 12.96, 13.86, 18.33, -26.37, -26.46, -16.79, -10.75, -9.17, -6.7, -3.68, -5.0, -4.15, -5.0, -5.54, -4.8, -4.6, -4.6, -4.6, 6.97, 6.97, 6.97, 7.26, 7.26, 7.61, 7.61, 7.61, 7.61, 7.61, 7.61, 7.9, 8.24, 8.24, 8.24, 8.24, 8.24, 8.24, 8.24, 8.82, 8.82, 8.82, 8.82, 8.78, 8.78, 8.78, 9.3, 9.3, 8.94, 9.21, 9.21, 9.21, 9.48, 9.3, 9.3, 9.58, 9.58, 9.58, 9.86, 9.86, 10.13, 10.13, 10.38, 10.38, 10.38, 10.38, 10.6, 10.37, 10.52, 10.52, 10.19, 10.19, 9.37, 9.37, 8.92, 8.47, 8.47, 8.47, 8.03, 8.03, 7.97, 7.51, 7.51, 7.37, 7.81, 7.76, 7.47, 7.63, 10.04, 10.68, 10.68, 10.73, 10.73, 10.28, 9.79, 9.79, 10.73, 11.62, 12.45, 12.45, 12.44, 13.41, 18.78, -24.14, -26.99, -16.6, -9.8, -7.59, -7.59, -6.71, -6.98, -6.45, -6.76, -5.92, -5.92, -5.21, -5.21, -5.21, 6.97, 6.97, 6.97, 6.97, 7.26, 7.61, 7.61, 7.61, 7.61, 7.61, 7.61, 7.61, 7.93, 8.24, 8.24, 8.24, 7.93, 7.93, 7.93, 8.22, 8.5, 8.5, 8.5, 8.78, 8.78, 9.08, 8.73, 8.73, 9.21, 9.21, 9.21, 9.21, 9.48, 9.3, 9.3, 9.58, 9.58, 9.86, 9.86, 9.86, 10.13, 10.13, 9.83, 10.05, 10.05, 9.96, 10.18, 10.37, 10.37, 10.52, 10.08, 10.19, 9.31, 9.37, 8.92, 8.92, 8.47, 8.47, 8.03, 7.97, 7.97, 7.97, 7.95, 7.84, 7.81, 7.63, 7.98, 7.89, 7.89, 10.47, 10.68, 10.68, 10.73, 10.28, 10.28, 10.28, 10.28, 11.18, 11.55, 12.0, 12.42, 14.16, 17.64, 21.01, -26.56, -23.64, -14.39, -9.08, -7.9, -7.9, -7.56, -7.56, -6.97, -6.16, -5.92, -5.45, -5.45, -5.45, 6.97, 6.97, 6.97, 6.97, 7.26, 7.61, 7.61, 7.61, 7.61, 7.61, 7.61, 7.61, 7.61, 7.93, 7.93, 7.93, 7.93, 7.93, 8.22, 8.22, 8.22, 8.5, 8.78, 8.78, 8.78, 8.73, 8.73, 8.73, 9.01, 9.01, 9.21, 9.48, 9.3, 8.93, 9.2, 9.2, 9.86, 9.86, 9.86, 9.86, 10.13, 9.83, 9.83, 10.05, 10.05, 10.24, 10.18, 10.37, 10.37, 10.52, 10.08, 9.75, 9.31, 9.31, 8.86, 8.86, 8.42, 8.42, 8.41, 7.97, 7.97, 7.97, 7.84, 7.84, 7.81, 8.06, 7.98, 7.6, 7.6, 9.75, 9.75, 10.52, 10.08, 9.79, 9.79, 9.79, 9.6, 10.22, 10.47, 11.35, 12.96, 13.72, 15.18, 18.96, -0.0, -24.79, -17.67, -13.2, -8.49, -7.9, -7.65, -7.65, -7.95, -7.56, -5.92, -5.92, -5.92, -5.92, 6.71, 6.71, 6.97, 6.97, 6.97, 7.61, 7.61, 7.61, 7.61, 7.61, 7.61, 7.61, 7.61, 7.93, 7.93, 7.93, 7.93, 8.22, 8.22, 8.22, 8.22, 8.5, 8.78, 8.45, 8.73, 8.73, 8.73, 8.73, 9.01, 8.65, 8.65, 8.93, 8.93, 8.93, 9.2, 9.2, 9.2, 9.86, 9.86, 9.86, 10.24, 9.83, 9.83, 10.05, 10.05, 10.24, 10.37, 10.37, 10.37, 10.52, 10.08, 9.75, 9.75, 9.31, 8.86, 8.86, 8.42, 8.42, 8.42, 8.41, 7.97, 7.87, 7.87, 8.28, 8.28, 8.06, 8.48, 8.14, 7.67, 9.4, 9.75, 9.85, 9.64, 9.34, 9.33, 9.33, 9.33, 9.16, 9.75, 11.55, 12.52, 13.33, 14.66, 17.33, 21.19, -24.79, -18.42, -14.3, -10.41, -9.17, -8.69, -8.22, -8.53, -7.24, -6.97, -6.97, -6.97, -6.97, 6.33, 6.33, 6.71, 6.97, 6.97, 7.61, 7.61, 7.61, 7.61, 7.61, 7.61, 7.61, 7.61, 7.93, 7.93, 7.93, 8.22, 8.22, 8.22, 8.22, 8.52, 8.19, 8.45, 8.45, 8.73, 8.73, 8.73, 9.01, 8.65, 8.65, 8.65, 8.93, 8.93, 8.93, 9.2, 9.2, 9.2, 9.47, 9.47, 9.6, 9.83, 9.83, 9.83, 10.05, 10.05, 10.24, 10.18, 10.37, 10.37, 10.52, 10.08, 9.75, 9.75, 9.31, 8.86, 8.86, 8.42, 8.42, 8.42, 8.42, 8.41, 8.3, 8.3, 8.3, 8.28, 8.06, 8.48, 8.14, 7.85, 7.85, 8.67, 10.7, 10.08, 9.34, 9.34, 9.34, 9.39, 9.83, 10.28, 11.62, 12.52, 13.41, 14.75, 16.54, 22.8, -26.29, -19.08, -15.41, -13.02, -11.5, -10.25, -9.02, -8.85, -8.54, -7.95, -6.7, -6.7, -6.7, 6.33, 6.33, 6.33, 6.71, 6.97, 7.26, 7.61, 7.61, 7.61, 7.61, 7.61, 7.61, 7.61, 7.61, 7.93, 8.22, 8.22, 8.22, 8.22, 7.9, 8.19, 8.19, 8.19, 8.45, 8.73, 8.73, 8.73, 9.01, 8.65, 8.65, 8.65, 8.93, 8.93, 8.93, 9.2, 9.2, 9.2, 9.47, 9.6, 9.6, 9.83, 9.83, 9.83, 10.05, 10.05, 10.05, 10.18, 10.37, 10.37, 10.52, 10.08, 9.64, 9.64, 9.31, 9.31, 8.86, 8.86, 8.42, 8.42, 8.42, 8.42, 8.3, 8.3, 8.3, 8.28, 8.12, 8.48, 8.48, 8.25, 8.14, 8.67, 10.7, 10.08, 10.73, 9.39, 9.83, 9.83, 9.83, 10.28, 10.73, 12.07, 12.96, 14.23, 15.57, 21.01, -27.72, -21.9, -16.01, -13.8, -13.02, -11.39, -10.25, -9.02, -8.85, -8.32, -7.41, -7.41, -7.41, 6.33, 6.33, 6.33, 6.33, 6.71, 6.98, 7.61, 7.61, 7.61, 7.61, 7.61, 7.61, 7.61, 7.61, 7.91, 7.9, 7.9, 7.9, 7.9, 8.19, 8.19, 8.19, 8.19, 8.73, 8.73, 8.73, 8.73, 9.01, 8.65, 8.65, 8.65, 8.93, 8.93, 8.93, 9.2, 9.2, 9.2, 9.47, 9.6, 9.6, 9.83, 9.83, 9.83, 9.83, 10.05, 10.05, 10.18, 10.37, 10.37, 10.08, 10.08, 9.64, 9.64, 9.21, 9.21, 8.77, 8.86, 8.86, 8.86, 8.42, 8.33, 8.33, 8.3, 8.3, 8.3, 8.28, 8.55, 8.48, 8.25, 8.25, 8.4, 8.67, 9.15, 11.53, 9.39, 9.83, 9.83, 9.83, 10.22, 10.66, 11.35, 12.66, 13.53, 14.4, 18.66, 23.75, -22.9, -18.78, -15.58, -14.51, -12.87, -11.99, -10.62, -9.77, -8.85, -8.24, -8.24, -8.24, 6.33, 6.33, 6.33, 6.33, 6.71, 6.98, 7.61, 7.61, 7.61, 7.61, 7.61, 7.61, 7.61, 7.61, 7.91, 7.9, 7.9, 7.9, 7.9, 8.19, 8.19, 8.19, 8.19, 8.73, 8.73, 8.73, 8.73, 9.01, 8.65, 8.65, 8.65, 8.93, 8.93, 8.93, 9.2, 9.2, 9.2, 9.47, 9.6, 9.6, 9.83, 9.83, 9.83, 9.83, 10.05, 10.05, 10.18, 10.37, 10.37, 10.08, 10.08, 9.64, 9.64, 9.21, 9.21, 8.77, 8.86, 8.86, 8.86, 8.42, 8.33, 8.33, 8.3, 8.3, 8.3, 8.28, 8.55, 8.48, 8.25, 8.25, 8.4, 8.67, 9.15, 11.53, 9.39, 9.83, 9.83, 9.83, 10.22, 10.66, 11.35, 11.87, 12.72, 13.96, 15.99, 19.99, 22.99, -21.01, -19.22, -16.03, -14.66, -13.44, -12.39, -11.16, -9.88, -8.53, -8.53, -8.53]}, {"header": {"dx": 0.06612293990616946, "dy": 0.0552356325346848, "nx": 98, "ny": 59, "la1": 35.046912555036876, "la2": 31.78801023549047, "lo1": -121.43107172385933, "lo2": -114.95102361305473, "refTime": "2026041600", "parameterCategory": 1, "parameterNumber": 3}, "data": [-12.73, -12.51, -12.51, -12.22, -11.63, -11.36, -10.75, -10.13, -9.82, -8.59, -8.23, -7.22, -7.26, -5.8, -3.18, -2.08, -1.16, 0.0, 0.0, 0.0, -1.83, -4.1, -9.67, -11.06, -11.18, -11.62, -11.45, -11.87, -11.45, -11.45, -12.35, -12.79, -12.52, -10.96, -9.55, -7.68, -7.33, -6.64, -6.01, -6.58, -5.21, -5.92, -5.77, -6.4, -6.0, -5.91, -6.13, -4.87, -3.46, -2.9, -2.02, -0.98, 0.0, 0.0, 0.0, 0.98, 1.83, 1.83, 2.64, 2.72, 2.72, 3.58, 3.58, 3.47, 3.36, 3.47, 3.47, 3.47, 3.69, 3.16, 3.37, 3.52, 3.52, 4.95, 5.35, 4.12, 2.64, 2.81, 0.0, 3.58, 13.57, 13.41, 12.79, 12.39, 11.61, 10.4, 9.27, 7.9, 7.9, 8.59, 11.2, 11.99, 12.39, 13.19, 12.51, 11.64, 9.84, 9.17, -13.01, -12.51, -12.51, -12.51, -11.96, -11.36, -10.75, -10.13, -9.82, -9.21, -8.58, -8.95, -7.19, -5.93, -5.27, -2.93, -2.1, -1.71, -1.71, -2.52, -3.68, -4.1, -10.37, -12.71, -10.73, -11.18, -11.03, -10.8, -10.8, -11.87, -13.57, -13.67, -12.52, -9.64, -7.47, -6.98, -6.18, -6.87, -7.21, -7.27, -8.15, -8.59, -6.87, -7.24, -7.49, -6.8, -5.48, -4.08, -3.12, -2.24, -1.13, -1.08, 0.0, 0.0, 0.89, 1.94, 1.94, 2.64, 2.64, 2.72, 3.58, 3.58, 3.47, 3.36, 3.36, 2.55, 2.64, 2.64, 2.01, 2.13, 2.34, 3.62, 3.9, 3.69, 3.69, 2.64, 1.34, 2.81, 0.0, 3.58, 13.57, 13.41, 12.79, 12.39, 11.61, 10.4, 9.27, 7.9, 7.9, 8.59, 11.2, 11.99, 12.39, 13.19, 12.51, 11.64, 9.84, 9.17, -13.01, -12.8, -12.51, -12.51, -11.96, -11.63, -11.03, -10.43, -9.82, -9.5, -8.87, -7.61, -7.78, -6.08, -5.2, -3.97, -3.06, -3.06, -3.47, -3.56, -4.72, -4.93, -7.51, -13.15, -13.86, -10.73, -10.18, -10.18, -10.75, -11.18, -14.6, -15.05, -14.3, -11.18, -8.06, -7.15, -7.37, -7.28, -8.34, -9.3, -8.53, -8.12, -8.01, -7.9, -7.74, -6.4, -4.65, -3.02, -2.43, -1.17, 0.0, 0.0, 0.0, 1.01, 1.72, 1.89, 2.8, 2.64, 2.72, 3.58, 3.58, 3.47, 3.36, 2.55, 2.55, 1.77, 1.83, 2.07, 2.07, 2.28, 3.62, 3.9, 3.79, 3.69, 2.43, 1.34, 0.0, 0.0, 0.0, 6.6, 13.28, 13.41, 12.96, 12.07, 11.28, 10.88, 9.09, 8.59, 8.59, 10.19, 12.79, 13.19, 13.19, 13.19, 11.64, 10.18, 8.44, 8.15, -13.01, -12.8, -12.51, -12.51, -12.16, -11.63, -11.03, -10.43, -9.82, -9.5, -8.87, -8.53, -8.01, -6.45, -5.57, -4.81, -4.47, -4.12, -4.81, -4.12, -4.15, -4.4, -5.0, -9.3, -12.07, -12.96, -10.18, -9.46, -9.74, -11.09, -11.98, -13.75, -15.65, -15.65, -12.27, -9.96, -8.82, -8.93, -8.82, -9.81, -9.69, -9.17, -8.3, -7.51, -6.31, -4.99, -4.38, -2.35, -1.13, 0.0, 0.0, 0.0, 0.98, 0.98, 1.95, 1.83, 2.72, 2.72, 3.58, 3.47, 2.72, 2.64, 2.64, 1.72, 1.83, 1.95, 2.07, 1.94, 3.42, 4.91, 5.23, 4.95, 4.12, 2.43, 1.19, 0.0, 0.0, 0.0, 0.0, 8.31, 12.89, 13.41, 12.96, 11.62, 11.09, 10.68, 10.48, 10.09, 9.7, 12.39, 13.59, 13.81, 12.39, 11.64, 10.55, 9.48, 7.54, 8.01, -13.01, -13.01, -12.45, -12.16, -12.16, -11.63, -11.36, -10.43, -9.82, -9.5, -8.87, -8.82, -8.12, -7.26, -6.0, -5.57, -5.2, -5.2, -5.57, -5.78, -6.43, -6.21, -6.45, -7.26, -10.32, -12.07, -12.52, -12.07, -11.18, -10.28, -10.73, -11.18, -11.62, -12.44, -14.11, -13.57, -13.59, -12.03, -10.4, -10.63, -10.79, -9.64, -8.97, -7.44, -6.64, -4.38, -3.47, -2.35, -1.13, 0.0, 0.0, 0.0, 1.02, 2.09, 2.89, 2.89, 3.8, 3.58, 3.58, 2.64, 1.89, 1.83, 1.83, 1.95, 2.09, 2.34, 3.82, 4.86, 8.2, 9.0, 7.57, 5.65, 4.45, 1.58, 0.0, 0.0, 0.0, 4.52, 9.8, 10.47, 12.46, 12.96, 11.98, 11.18, 11.18, 11.53, 11.09, 10.09, 11.64, 14.23, 13.39, 12.14, 11.5, 11.26, 9.17, 7.79, 7.54, 8.85, -13.01, -12.65, -12.45, -12.45, -11.92, -11.92, -11.36, -11.03, -9.82, -9.5, -8.85, -8.45, -8.53, -7.26, -5.75, -5.35, -5.35, -5.57, -6.0, -6.84, -6.67, -8.02, -9.48, -11.16, -12.39, -12.07, -12.07, -12.07, -12.96, -12.07, -9.83, -10.22, -10.04, -9.4, -10.8, -12.98, -11.99, -10.01, -9.42, -10.43, -11.39, -10.99, -9.13, -7.36, -5.92, -5.04, -2.64, -1.19, 0.0, 0.0, 1.06, 2.11, 3.12, 3.93, 4.05, 3.8, 3.8, 2.89, 2.72, 1.89, 0.92, 0.96, 1.05, 1.08, 2.45, 5.37, 8.35, 8.88, 8.56, 9.0, 8.42, 6.36, 4.82, 3.68, 2.02, 0.0, 2.2, 7.78, 10.37, 11.12, 12.07, 11.53, 11.09, 11.51, 11.51, 11.62, 11.61, 12.33, 14.18, 13.75, 12.46, 12.89, 11.99, 10.12, 8.3, 6.65, 8.3, 9.62, -12.65, -12.65, -12.45, -12.45, -11.92, -11.92, -11.58, -11.03, -10.43, -9.8, -8.53, -8.49, -8.22, -6.57, -5.86, -5.14, -5.0, -5.57, -6.45, -6.71, -6.71, -7.36, -6.98, -9.66, -12.35, -11.62, -11.62, -12.07, -12.52, -10.73, -11.18, -9.77, -8.99, -7.51, -8.94, -11.85, -11.2, -9.48, -11.62, -10.28, -12.39, -12.04, -8.58, -5.64, -2.57, 0.0, 1.6, 1.38, 2.48, 3.36, 4.52, 4.38, 5.14, 4.34, 3.93, 2.72, 2.81, 1.89, 0.95, 0.92, 0.0, 1.03, 1.17, 2.65, 6.84, 10.33, 11.36, 9.47, 7.0, 6.88, 6.5, 4.77, 2.79, 2.96, 3.69, 4.67, 5.64, 6.0, 11.16, 13.41, 11.62, 11.18, 10.8, 11.45, 11.21, 12.52, 13.86, 14.03, 14.11, 13.41, 13.28, 12.72, 11.5, 9.48, 7.44, 8.3, 9.62, 10.04, -12.93, -12.65, -12.45, -12.45, -11.87, -11.58, -11.58, -11.03, -10.72, -10.09, -8.82, -8.79, -8.22, -7.26, -6.7, -5.95, -6.09, -5.72, -6.09, -5.86, -5.63, -5.3, -5.06, -4.33, -3.53, -2.49, 0.0, 4.8, 0.0, -10.96, -11.06, -11.53, -10.75, -8.93, -8.41, -8.49, -10.28, 9.3, -0.0, -11.03, -11.18, 0.0, 5.6, 6.2, 8.85, 8.28, 7.6, 7.2, 6.6, 6.4, 5.18, 5.16, 4.97, 3.81, 2.9, 1.96, 0.92, 0.0, 0.0, 0.0, 0.0, 0.0, 1.26, 7.6, 12.03, 12.63, 9.99, 7.0, 4.66, 3.79, 2.94, 3.01, 1.34, 1.42, 1.51, 1.63, 2.02, 6.0, 12.58, 14.3, 13.86, 11.87, 9.42, 8.85, 8.85, 11.16, 13.01, 13.41, 12.96, 12.96, 12.96, 12.71, 11.5, 10.82, 9.48, 9.77, 10.04, 10.68, -12.93, -12.93, -12.45, -12.09, -11.87, -11.58, -11.33, -11.33, -10.72, -10.09, -9.08, -9.21, -10.79, -9.69, -8.53, -8.07, -7.64, -7.24, -6.45, -6.0, -5.92, -6.16, -4.47, -3.55, -0.93, 1.55, 4.83, 7.87, 2.49, -4.8, -9.55, -10.41, -7.59, -3.53, -1.84, -1.69, 9.6, 10.73, 11.62, 10.0, 10.41, 10.01, 8.85, 9.48, 8.94, 7.34, 8.93, 8.43, 7.71, 6.8, 5.99, 4.1, 3.02, 2.11, 0.99, 0.0, 0.0, -0.86, -1.77, -1.64, -1.9, 0.0, 7.54, 13.02, 13.58, 12.01, 9.36, 6.19, 4.66, 2.24, 1.15, 0.0, 0.0, -1.2, 0.0, 0.0, 0.0, 9.17, 13.23, 15.05, 14.03, 13.15, 8.58, 5.15, 3.04, 3.04, 7.19, 9.17, 8.85, 12.3, 12.96, 12.96, 12.04, 11.5, 11.16, 10.41, 10.4, 10.8, -12.93, -12.73, -12.45, -12.09, -11.87, -11.58, -11.33, -11.33, -10.72, -10.36, -9.66, -9.94, -9.3, -9.3, -9.59, -9.34, -9.69, -8.97, -8.53, -8.15, -7.59, -7.59, -6.76, -5.77, -1.84, 5.0, 6.95, 6.95, 2.6, -2.02, 0.0, 11.18, 9.83, 9.6, 8.22, 5.2, 7.59, 8.48, 9.97, 8.85, 8.53, 8.85, 7.24, 5.2, 4.08, 5.8, 5.45, 6.4, 7.49, 7.0, 5.67, 4.66, 3.47, 2.28, 1.15, 0.0, 0.0, -1.84, -2.51, -3.96, -1.63, 10.33, 16.02, 14.86, 13.01, 12.33, 10.52, 7.63, 3.57, 0.0, -0.98, -3.07, -4.15, -4.73, -4.12, -4.38, 0.0, 10.79, 11.95, 13.75, 13.59, 15.69, 15.69, 8.68, -0.0, -0.0, -0.0, -0.0, -0.0, 5.8, 12.3, 12.52, 12.52, 12.04, 11.6, 11.2, 11.87, 11.5, -12.37, -12.37, -12.37, -12.09, -11.87, -11.58, -11.33, -11.33, -10.72, -10.36, -10.06, -10.23, -10.01, -9.42, -9.48, -8.93, -8.97, -8.85, -9.17, -8.23, -9.5, -9.71, -8.31, -7.82, 0.0, 10.73, 10.28, 8.8, 3.11, 2.39, 5.7, 8.72, 9.64, 7.87, 5.9, 5.2, 6.97, 9.08, 8.82, 8.24, 7.96, 6.94, 5.64, 3.82, 3.68, 4.08, 5.4, 6.08, 5.8, 6.0, 6.6, 7.2, 5.98, 6.54, 6.54, 7.4, 5.23, 0.0, -4.4, -6.0, 17.1, 17.59, 15.81, 14.61, 13.9, 14.46, 13.59, 9.92, 4.18, -0.89, -4.66, -5.81, -7.2, -7.71, -8.43, -7.44, 8.22, 11.06, 14.16, 13.97, 13.2, 13.02, 15.78, 16.99, 7.2, -3.58, -3.69, -0.0, 3.47, 6.0, 8.85, 12.14, 12.52, 12.27, 11.45, 12.46, 12.46, 11.92, -12.37, -12.37, -12.37, -12.09, -11.87, -11.58, -11.33, -10.99, -10.72, -10.69, -10.3, -10.3, -10.06, -9.17, -7.33, -6.16, -4.92, -4.33, -4.99, -4.08, -3.0, -1.95, -1.02, 0.0, 3.25, 11.2, 12.07, 8.49, 7.59, 4.8, 5.0, 6.7, 7.59, 6.42, 4.6, 4.23, 6.24, 7.56, 7.56, 6.7, 6.94, 5.86, 4.72, 3.68, 3.98, 4.05, 6.21, 7.82, 6.67, 7.13, 8.31, 10.76, 13.28, 17.06, 17.57, 17.57, 17.58, 11.27, -12.07, 9.8, 17.88, 18.17, 16.85, 15.16, 15.16, 17.67, 18.38, 16.12, 11.54, 0.0, -10.43, -10.43, -11.1, -10.75, -10.55, -7.59, 11.62, 14.64, 14.84, 13.99, 13.1, 12.36, 14.57, 17.88, 18.78, -0.0, -0.0, 6.8, 8.85, 8.31, 7.51, 9.3, 11.4, 11.62, 12.39, 12.46, 12.46, 11.92, -12.37, -12.37, -12.37, -12.09, -11.87, -11.58, -11.33, -10.99, -10.72, -10.69, -10.36, -10.06, -10.06, -9.48, -8.24, -6.5, -5.03, -3.3, -2.09, -1.53, -0.75, 0.0, 0.0, 0.74, 1.77, 3.01, 7.44, 11.6, 8.53, 4.4, 2.19, 5.0, 5.95, 4.05, 5.1, 5.1, 5.45, 5.92, 5.92, 5.43, 4.72, 3.68, 3.53, 2.39, 2.02, 6.44, 9.3, 8.53, 7.78, 8.05, 8.85, 9.48, 12.42, 14.75, 16.76, 17.62, 16.74, 16.12, 0.0, 11.09, 16.09, 16.22, 16.54, 15.16, 17.62, 18.94, 19.99, 21.32, 22.38, 25.03, -21.92, -21.01, -13.75, -10.88, -9.7, 11.62, 14.66, 15.27, 14.07, 13.23, 11.38, 10.76, 10.3, 13.76, 16.12, 16.79, 19.67, 15.99, 14.94, 13.28, 12.39, 11.03, 10.75, 11.62, 12.52, 12.83, 12.46, 12.33, -12.27, -12.0, -12.37, -12.37, -11.87, -11.58, -11.33, -10.99, -10.72, -10.4, -10.36, -9.77, -10.06, -9.48, -8.87, -7.59, -6.46, -4.77, -3.53, -2.48, -1.93, -1.3, 0.0, 0.0, 0.71, 0.95, 3.01, 5.46, 5.28, 3.44, 1.52, 1.76, 4.15, 4.4, 3.87, 4.88, 5.21, 5.98, 5.45, 4.36, 2.33, 2.23, 1.76, 2.02, 4.4, 8.23, 7.33, 7.9, 8.22, 8.85, 8.85, 8.53, 10.8, 11.71, 11.2, 10.41, 9.39, 6.08, 4.21, 13.32, 13.86, 15.34, 15.84, 16.12, 15.69, 15.06, 15.87, 17.09, 19.19, 21.63, -21.19, -21.2, -18.33, -10.28, 0.0, 14.4, 15.54, 15.59, 13.59, 12.01, 11.06, 9.92, 8.29, 4.81, 13.02, 14.79, 16.6, 18.33, 17.43, 16.54, 14.3, 11.18, 11.09, 12.52, 12.52, 12.83, 12.46, 12.46, -12.27, -12.0, -12.0, -12.16, -11.87, -11.58, -11.33, -10.99, -10.72, -10.4, -10.09, -9.77, -9.48, -9.48, -9.17, -7.96, -7.57, -6.43, -5.25, -4.03, -2.85, -2.37, -1.3, -0.65, 0.0, 0.77, 2.28, 3.98, 3.85, 2.63, 1.25, 0.0, 2.19, 2.02, 3.82, 5.29, 6.7, 5.72, 5.0, 2.13, 1.14, 0.0, 1.62, 3.65, 7.87, 7.87, 8.8, 8.23, 7.59, 7.9, 8.22, 7.9, 8.58, 8.4, 7.87, 7.59, 5.2, 1.53, 3.01, 11.16, 12.3, 12.14, 12.03, 11.9, 12.27, 13.03, 14.18, 13.26, 10.05, 10.35, 0.0, -21.17, -19.95, -12.52, 13.01, 15.44, 15.06, 13.96, 12.01, 10.43, 8.47, 8.25, 5.81, 1.66, 5.8, 14.11, 14.61, 15.47, 15.61, 15.9, 16.33, 13.31, 11.62, 12.52, 13.41, 12.83, 12.83, 12.83, -12.09, -11.8, -11.8, -11.8, -11.87, -11.87, -11.33, -10.99, -10.72, -10.4, -10.09, -9.77, -9.48, -9.48, -9.17, -8.53, -7.59, -6.46, -5.73, -4.55, -4.03, -2.85, -2.37, -1.34, 0.0, 0.78, 2.55, 2.9, 2.81, 1.9, 1.03, 0.0, 0.0, 0.0, 2.02, 4.44, 5.98, 5.45, 3.39, 1.69, 0.0, 2.58, 5.29, 6.95, 7.87, 8.4, 9.13, 8.23, 8.23, 6.17, 6.71, 8.22, 9.3, 7.59, 5.63, 3.65, 2.02, 0.0, 3.58, 10.18, 9.89, 8.93, 8.22, 7.54, 6.21, 6.67, 7.19, 7.82, 8.28, 7.3, -9.6, -18.78, -17.81, 18.78, 14.53, 15.91, 14.77, 12.63, 10.78, 9.43, 8.2, 7.44, 5.37, 3.58, 7.54, 10.75, 13.01, 12.58, 12.58, 13.44, 14.65, 12.66, 12.71, 13.09, 12.14, 11.71, 12.14, 12.14, -12.09, -11.8, -11.8, -11.8, -11.52, -11.87, -11.33, -10.99, -10.72, -10.12, -9.8, -9.77, -9.8, -9.48, -8.83, -8.83, -7.48, -6.5, -5.8, -5.28, -4.07, -3.53, -2.4, -1.31, 0.0, 1.42, 2.3, 1.72, 1.83, 0.0, 0.0, -0.92, -0.93, 0.0, 1.26, 4.66, 4.88, 3.98, 2.02, 1.93, 3.65, 5.59, 7.27, 6.87, 7.87, 8.43, 8.82, 8.82, 7.27, 6.17, 6.17, 6.44, 6.98, 6.7, 5.52, 4.6, 2.82, 2.95, 5.99, 8.44, 8.85, 7.15, 5.95, 4.8, 3.39, 4.05, 4.32, 2.82, 6.2, 4.23, -6.93, -18.33, 17.88, 19.75, 15.53, 14.33, 13.04, 11.99, 10.91, 8.99, 8.0, 7.08, 7.6, 7.54, 10.12, 10.68, 11.61, 12.58, 13.01, 13.15, 13.99, 12.85, 11.99, 12.04, 12.3, 11.45, 11.72, 11.72, -11.72, -11.8, -11.8, -11.8, -11.52, -11.52, -10.99, -10.99, -10.72, -10.12, -9.8, -9.8, -9.8, -9.48, -8.83, -8.17, -8.15, -7.16, -5.8, -4.62, -3.56, -2.97, -2.51, -0.64, 0.64, 1.42, 0.8, 0.0, 0.0, -1.89, -2.72, -2.81, -3.96, -2.0, 0.0, 1.45, 3.11, 2.49, 2.39, 3.65, 5.9, 7.87, 7.87, 8.23, 7.27, 8.03, 8.38, 7.27, 6.42, 5.29, 5.29, 5.29, 6.42, 6.42, 5.7, 4.6, 4.6, 5.95, 7.15, 6.5, 7.02, 5.77, 4.23, 2.95, 1.76, 1.22, 0.0, 0.0, 0.0, 0.0, 0.0, 5.65, 12.46, 15.77, 11.83, 9.87, 9.2, 8.84, 8.8, 8.4, 8.97, 8.68, 10.39, 10.91, 10.87, 11.5, 11.92, 12.58, 13.01, 13.57, 13.57, 12.3, 11.13, 11.34, 11.33, 10.99, 11.44, 11.44, -11.72, -11.72, -11.44, -11.8, -11.52, -11.28, -10.99, -10.99, -10.72, -10.12, -9.8, -9.5, -9.8, -9.48, -9.17, -9.24, -7.6, -7.87, -5.86, -4.48, -3.53, -3.72, -3.81, -2.47, -0.83, -1.25, -1.97, -2.48, -2.63, -3.98, -3.98, -4.81, -6.08, -4.9, -2.71, 0.0, 0.0, 0.0, 0.0, 2.1, 3.87, 5.7, 6.71, 6.71, 8.22, 6.7, 6.7, 5.29, 4.6, 4.6, 4.6, 5.29, 6.42, 6.42, 6.42, 6.42, 5.7, 7.15, 7.73, 5.77, 4.58, 3.19, 3.07, 1.09, 1.09, 0.0, 0.0, -1.28, -1.18, 0.0, 3.51, 8.06, 11.29, 11.94, 6.9, 4.41, 2.97, 3.24, 4.67, 5.51, 9.42, 11.35, 11.38, 9.5, 10.91, 11.64, 12.33, 12.14, 12.56, 12.85, 13.57, 12.85, 11.56, 10.4, 11.53, 11.44, 12.39, 12.39, -11.72, -11.72, -11.44, -11.8, -11.28, -11.28, -11.28, -10.99, -10.72, -10.12, -9.8, -9.5, -9.8, -9.48, -9.48, -8.54, -7.89, -7.61, -7.12, -6.21, -5.73, -5.99, -6.24, -6.52, -5.8, -4.65, -3.41, -4.24, -2.28, 0.0, -5.6, -10.01, -8.53, -8.53, -6.45, -2.95, 0.0, 0.0, 0.0, 1.14, 3.08, 4.36, 4.54, 5.92, 5.92, 5.98, 5.29, 5.29, 3.25, 3.11, 3.11, 6.42, 7.59, 8.73, 6.95, 6.95, 7.15, 6.59, 5.95, 4.58, 3.07, 1.52, 0.0, 0.0, 0.0, 0.0, 0.0, -1.39, 0.0, 2.4, 4.54, 7.88, 8.35, 6.4, 2.09, 0.0, -0.95, -1.15, 2.96, 8.25, 9.39, 10.76, 9.89, 9.48, 9.8, 10.18, 10.91, 11.26, 12.14, 11.87, 12.72, 12.85, 12.04, 11.33, 10.94, 11.44, 12.51, 12.51, -11.72, -11.72, -11.23, -11.23, -10.94, -11.28, -11.28, -10.72, -10.4, -10.12, -10.12, -9.5, -9.5, -9.48, -9.48, -8.53, -7.87, -8.2, -7.54, -8.18, -7.36, -7.38, -8.5, -8.61, -7.82, -6.4, -3.57, -1.97, 0.0, 0.0, 0.0, -11.62, -10.79, -9.97, -5.98, -1.84, 0.0, 0.0, 0.0, 0.0, 1.23, 2.42, 3.53, 4.24, 5.2, 4.48, 3.65, 3.25, 1.69, 1.69, 5.06, 7.27, 8.38, 8.73, 8.38, 7.81, 7.36, 7.42, 5.77, 3.07, 1.58, 0.0, 0.0, 0.0, 0.0, 0.0, 0.0, 1.5, 5.27, 6.2, 8.4, 8.2, 6.56, 0.0, -2.3, -4.49, -5.65, -1.97, 4.54, 9.73, 11.06, 10.18, 9.6, 9.48, 9.8, 9.48, 10.3, 10.91, 11.37, 11.3, 11.87, 12.25, 12.5, 10.59, 10.36, 10.43, 11.8, 11.8, -11.16, -11.52, -11.23, -11.23, -11.23, -10.94, -10.94, -10.69, -10.4, -10.12, -10.12, -9.8, -9.5, -9.48, -9.48, -9.17, -8.53, -8.46, -8.74, -8.64, -8.18, -6.69, -6.88, -7.89, -8.14, -6.73, -4.27, -2.39, -0.8, 0.0, -1.33, -4.32, -9.3, -9.3, -4.32, -1.84, 0.0, 0.0, 0.0, 0.0, 0.0, 1.39, 2.71, 2.93, 4.4, 4.8, 3.39, 1.62, 1.69, 3.82, 7.27, 9.2, 9.2, 8.73, 8.38, 8.73, 8.75, 8.85, 5.77, 2.95, 1.14, 0.0, 0.0, -1.11, -1.23, 0.0, 1.44, 7.85, 10.23, 11.33, 11.06, 11.16, 9.11, 0.0, -7.87, -8.85, -9.42, 0.0, 15.99, 14.39, 13.02, 12.56, 12.22, 11.54, 10.86, 10.18, 9.48, 11.64, 12.51, 10.8, 11.03, 11.99, 11.72, 10.69, 9.5, 10.12, 12.51, 12.51, -11.16, -11.16, -11.16, -11.23, -11.23, -10.94, -10.69, -10.69, -10.4, -10.12, -10.12, -9.8, -9.8, -9.17, -9.17, -8.81, -8.81, -8.42, -8.69, -8.9, -7.39, -5.74, -4.77, -5.11, -6.0, -6.57, -5.46, -4.13, -3.14, -2.18, -2.22, -2.61, -3.34, -4.08, -1.64, 0.0, 0.0, 0.0, 0.0, 0.0, 0.0, 1.44, 1.44, 2.82, 4.58, 3.92, 3.98, 1.84, 3.49, 7.27, 8.82, 9.2, 8.38, 8.73, 8.38, 8.38, 8.49, 9.76, 8.3, 4.2, 2.04, 0.0, 0.0, -1.44, 0.0, 3.07, 8.22, 9.77, 9.67, 9.5, 8.66, 8.0, 8.34, -0.0, -0.0, -0.0, 8.85, 14.75, 16.99, 16.54, 13.32, 14.38, 12.73, 12.73, 11.2, 10.52, 9.8, 10.12, 12.37, 12.37, 11.33, 11.16, 11.29, 10.12, 10.12, 10.77, 12.13, 12.13, -11.16, -11.16, -11.16, -10.88, -11.23, -10.69, -10.69, -10.69, -10.69, -10.12, -10.12, -9.8, -9.8, -9.46, -9.17, -8.81, -9.09, -9.09, -8.38, -8.38, -7.64, -6.0, -4.86, -3.96, -3.87, -4.51, -5.28, -5.46, -4.24, -3.87, -2.87, -2.93, -2.28, -1.7, -1.01, 0.0, 0.0, 0.0, 0.0, 0.0, 0.0, 1.44, 1.44, 2.82, 3.19, 3.07, 2.45, 4.15, 5.52, 7.9, 9.08, 7.9, 7.59, 8.58, 8.82, 8.82, 7.9, 8.53, 8.1, 6.45, 3.52, 2.58, 1.58, 3.19, 5.0, 9.82, 10.55, 10.87, 9.3, 7.27, 4.4, 0.0, 0.0, 28.16, 7.4, 7.44, 11.16, 12.58, 14.31, 14.42, 13.86, 14.11, 13.56, 12.42, 11.33, 10.43, 10.43, 11.33, 12.37, 12.22, 10.52, 10.09, 9.8, 9.8, 10.77, 11.44, 11.75, 11.75, -11.16, -11.16, -11.16, -10.88, -10.88, -10.65, -10.36, -10.36, -10.42, -10.12, -10.12, -9.8, -9.8, -9.46, -9.46, -9.09, -9.09, -8.81, -8.11, -8.11, -7.4, -6.94, -5.5, -5.03, -4.7, -4.31, -4.0, -4.24, -4.24, -4.24, -3.87, -3.14, -2.31, -1.54, -0.86, -0.97, 0.0, 0.0, 0.0, 0.0, 0.0, 0.0, 1.39, 1.39, 2.71, 2.6, 1.28, 2.1, 2.59, 3.65, 4.36, 6.44, 6.44, 8.58, 8.82, 8.23, 7.27, 6.14, 6.97, 7.82, 6.2, 4.2, 4.88, 6.24, 8.93, 10.55, 10.8, 10.35, 9.53, 4.08, 0.0, -1.3, 0.0, 2.13, 6.72, 20.56, 12.64, 13.42, 12.79, 11.5, 12.87, 13.59, 13.41, 12.72, 12.27, 10.43, 11.33, 11.33, 11.54, 11.06, 12.01, 10.43, 10.12, 11.2, 10.73, 11.09, 11.75, 11.75, -10.8, -10.8, -11.16, -10.65, -10.65, -10.65, -10.36, -10.36, -10.09, -10.42, -10.12, -9.8, -9.8, -9.46, -9.46, -8.81, -8.81, -8.81, -8.11, -8.11, -7.69, -7.4, -6.45, -5.74, -5.2, -4.48, -4.1, -4.31, -3.87, -3.87, -3.87, -3.14, -2.45, -2.37, -1.64, -0.86, -0.89, 0.0, 0.0, 0.0, 0.0, 0.0, 1.23, 1.23, 2.33, 2.33, 1.16, 0.93, 0.89, 0.98, 1.23, 4.4, 8.85, 10.35, 9.58, 9.2, 6.17, 5.9, 6.17, 6.97, 6.7, 5.99, 4.98, 5.72, 9.09, 10.55, 11.2, 10.41, 7.78, 4.39, 1.33, 0.0, 0.0, 1.61, 3.86, 3.73, 15.49, 9.2, 8.22, 8.22, 9.48, 11.09, 14.9, 13.86, 13.57, 13.99, 12.65, 11.33, 10.43, 10.75, 12.01, 10.99, 11.44, 12.52, 11.09, 11.64, 10.52, 10.52, -10.8, -10.8, -10.8, -10.65, -10.65, -10.65, -10.36, -10.36, -10.09, -10.42, -10.42, -9.8, -9.8, -9.46, -9.46, -8.81, -8.81, -8.51, -8.11, -8.11, -7.69, -7.4, -6.72, -6.25, -5.74, -5.03, -4.48, -4.7, -4.1, -3.66, -3.87, -3.04, -3.04, -2.37, -2.53, -1.64, -1.77, -0.93, -0.97, 0.0, 0.0, 0.0, 1.28, 2.33, 2.23, 2.19, 1.01, 0.0, 0.0, 0.0, 0.0, 5.75, 7.9, 8.93, 9.3, 7.59, 6.44, 6.17, 6.64, 7.27, 6.21, 4.54, 4.4, 6.24, 10.41, 10.16, 10.04, 8.54, 6.87, 4.1, 1.29, 0.0, 0.0, 0.0, 1.54, 0.0, -24.59, -0.0, 1.62, 3.65, 5.98, 7.78, 11.44, 12.04, 13.86, 14.55, 13.99, 12.02, 10.75, 10.43, 10.75, 11.7, 13.12, 12.56, 11.54, 10.12, 10.12, 10.12, -11.07, -11.07, -10.59, -10.59, -10.65, -10.65, -10.65, -10.09, -10.09, -10.09, -10.12, -10.12, -9.8, -9.46, -9.46, -9.17, -8.51, -8.23, -7.85, -7.85, -7.44, -7.44, -6.99, -6.99, -6.51, -6.0, -5.27, -5.27, -4.54, -3.96, -3.96, -3.41, -3.41, -2.93, -3.11, -2.44, -2.61, -1.7, -1.84, -0.97, 0.0, 0.0, 1.23, 1.14, 0.98, 1.07, 0.0, 0.0, 0.0, 0.0, 4.15, 7.59, 8.73, 8.37, 8.93, 8.22, 6.71, 6.44, 8.55, 7.27, 4.4, 3.53, 3.21, 7.24, 9.3, 10.19, 9.48, 7.51, 3.82, 1.29, 0.0, 0.0, -1.11, -1.15, 0.0, -1.78, -14.22, -13.59, -3.81, -0.0, 3.07, 3.68, 6.9, 8.85, 11.2, 13.86, 13.7, 12.22, 11.06, 10.43, 9.6, 10.3, 11.7, 12.78, 12.56, 11.06, 9.73, 9.73, -11.07, -11.07, -10.59, -10.59, -10.3, -10.3, -10.06, -10.09, -10.09, -10.09, -9.8, -10.12, -9.8, -9.8, -9.46, -9.17, -8.23, -8.23, -7.85, -7.85, -7.44, -7.19, -6.76, -6.99, -6.51, -6.3, -5.8, -5.27, -4.54, -4.54, -3.82, -3.82, -3.41, -3.41, -2.82, -2.99, -2.44, -2.51, -1.84, -1.92, -1.11, 0.0, 0.0, 1.71, 3.32, 3.82, 0.93, -1.39, 0.0, 2.02, 7.9, 8.15, 7.81, 7.81, 7.59, 7.59, 8.53, 9.3, 7.59, 7.9, 4.4, 2.71, 4.24, 8.15, 9.08, 9.17, 9.13, 6.08, 2.52, 0.0, -1.38, -2.64, -2.28, -3.25, -3.47, -4.45, -4.3, -8.6, -16.79, -0.0, 1.5, 2.82, 3.96, 6.21, 10.37, 13.01, 13.41, 11.8, 10.75, 9.73, 8.57, 8.06, 7.6, 10.6, 11.06, 9.87, 10.59, 10.59, -11.07, -11.07, -10.59, -10.59, -10.3, -10.3, -10.06, -9.77, -10.09, -10.09, -9.8, -9.8, -10.12, -9.8, -9.46, -9.17, -8.53, -8.23, -7.59, -7.59, -7.19, -7.19, -6.76, -7.04, -6.57, -6.57, -6.07, -5.8, -5.08, -4.54, -3.96, -3.82, -3.82, -3.87, -3.28, -3.47, -2.99, -2.34, -2.51, -1.76, -1.92, -1.07, 0.0, 0.0, 3.92, 4.58, 1.58, 2.02, 7.27, 8.49, 7.9, 6.77, 7.27, 6.69, 6.87, 6.7, 6.14, 6.98, 7.26, 6.98, 4.23, 3.92, 5.4, 7.56, 7.24, 8.15, 8.73, 7.93, 3.92, 0.0, -3.77, -2.63, -1.46, -1.41, -3.72, -4.32, -2.78, 0.0, 0.0, 6.36, 12.61, 3.44, 3.19, 3.96, 6.97, 11.9, 13.86, 12.79, 9.22, 7.32, 5.18, 5.49, 4.95, 9.09, 9.35, 8.65, 11.16, 11.16, -11.07, -11.07, -10.87, -10.59, -10.59, -10.3, -10.06, -9.77, -9.77, -9.77, -9.8, -9.8, -9.8, -9.5, -9.17, -8.87, -8.24, -7.96, -7.59, -7.59, -7.19, -7.19, -7.48, -7.04, -6.57, -6.57, -6.57, -5.86, -5.08, -5.08, -4.54, -4.54, -3.82, -4.02, -3.87, -3.33, -3.53, -3.07, -2.41, -2.6, -1.92, -2.1, -1.18, 0.0, 0.0, 0.0, 1.5, 5.21, 6.31, 6.86, 5.95, 5.7, 5.45, 6.24, 6.24, 5.95, 5.29, 5.98, 5.52, 5.75, 4.4, 4.08, 6.4, 6.16, 5.4, 5.2, 5.77, 6.67, 6.21, 1.93, 0.0, 1.58, 3.39, 5.53, 0.0, -1.27, -2.52, 0.0, 1.27, 7.57, 16.63, 15.38, 1.83, 2.2, 2.72, -0.0, 0.0, 6.4, 5.31, 4.05, 1.83, 1.63, 1.89, 1.94, 5.49, 6.34, 12.01, 12.01, -10.87, -10.87, -10.87, -10.59, -10.59, -10.59, -10.06, -10.06, -9.77, -9.77, -9.48, -9.48, -9.8, -9.48, -8.87, -8.58, -8.58, -8.24, -7.96, -7.59, -7.33, -7.48, -7.48, -7.04, -7.04, -6.57, -6.35, -5.65, -5.8, -4.95, -5.08, -5.08, -5.08, -4.37, -4.02, -3.87, -3.92, -3.53, -2.95, -3.16, -2.49, -1.92, -1.07, -1.18, 0.0, 0.0, 1.11, 3.67, 4.44, 5.0, 3.98, 4.18, 4.36, 4.8, 4.6, 5.1, 5.0, 5.75, 3.98, 3.25, 3.82, 4.58, 4.08, 3.53, 3.68, 2.71, 1.45, 0.0, 2.45, 1.98, 3.61, 5.98, 7.69, 5.94, 5.7, 0.0, 0.0, 0.0, 3.98, 9.6, 11.0, 11.64, 7.0, -0.0, -0.0, -4.81, -15.65, -6.6, 0.0, 0.0, 0.0, 0.0, 0.0, 0.0, 3.69, 7.0, 14.39, 14.39, -10.51, -10.51, -10.51, -10.51, -10.23, -10.23, -10.06, -10.06, -9.77, -9.77, -9.48, -9.48, -9.48, -9.48, -8.87, -8.58, -8.58, -8.58, -8.24, -7.6, -7.6, -7.22, -7.22, -6.8, -6.8, -6.35, -6.35, -6.35, -5.65, -5.8, -5.7, -5.65, -5.65, -5.14, -4.6, -4.66, -4.08, -4.15, -3.76, -3.16, -3.25, -2.82, -2.1, -1.18, 0.0, 0.0, 0.0, 0.93, 1.92, 3.08, 2.95, 3.25, 3.53, 3.77, 3.61, 4.23, 4.23, 4.8, 4.6, 3.39, 4.23, 2.95, 3.68, 3.77, 2.71, 2.71, 1.52, 0.0, 0.0, 1.83, 3.47, 5.0, 3.34, 1.34, 1.65, 1.39, 2.09, 2.82, 5.62, 6.4, 6.34, 6.1, 6.14, -0.0, -7.4, -13.76, -16.09, -14.75, 0.0, 0.0, 0.0, 0.0, 0.0, 0.0, 7.36, 10.75, 14.61, 14.61, -10.51, -10.51, -10.51, -10.51, -10.23, -10.23, -10.01, -9.72, -10.06, -9.77, -9.48, -9.48, -9.48, -9.17, -8.87, -8.58, -8.58, -8.58, -8.24, -7.96, -7.6, -7.22, -7.22, -6.8, -6.8, -6.8, -6.35, -6.35, -6.35, -5.65, -4.95, -4.95, -5.2, -5.4, -5.4, -5.2, -4.92, -4.32, -4.4, -3.85, -3.39, -2.49, -2.82, -1.07, 0.0, 0.0, 0.0, 0.0, 1.07, 1.07, 2.1, 2.42, 2.33, 3.61, 3.61, 3.61, 4.05, 3.87, 4.6, 4.8, 4.65, 4.15, 4.15, 4.15, 4.05, 2.95, 1.52, 1.52, 0.0, 2.06, 3.96, 3.44, 1.77, 0.0, 0.0, 1.44, 4.3, 4.67, 4.61, 4.04, 2.97, 1.18, 1.83, 0.0, -7.4, -14.94, -16.09, -14.75, -2.81, 0.0, 0.0, 0.0, 0.0, 4.24, 11.5, 13.56, 14.75, 14.75, -10.51, -10.51, -10.51, -10.51, -10.51, -10.23, -10.01, -10.01, -9.72, -10.06, -9.48, -9.48, -9.48, -9.17, -9.17, -8.87, -8.87, -8.87, -7.96, -7.96, -7.6, -7.6, -7.22, -7.22, -6.8, -6.8, -6.35, -6.35, -6.35, -6.08, -5.4, -4.95, -4.95, -5.2, -5.47, -5.47, -5.77, -5.2, -4.68, -4.01, -4.13, -3.25, -2.71, -1.92, -1.02, 0.0, 0.0, 0.0, 0.0, 0.0, 1.07, 1.23, 2.33, 3.61, 3.77, 4.6, 4.4, 4.4, 3.45, 4.05, 3.87, 4.32, 3.98, 4.15, 3.53, 4.15, 2.95, 2.71, 2.71, 1.33, 2.72, 1.96, 1.77, 0.0, 0.0, 2.51, 4.46, 4.91, 3.89, 2.22, 0.0, -1.21, -1.94, 0.0, -4.95, -12.65, -14.75, -10.43, 0.0, 0.0, 1.77, 1.77, 4.65, 10.01, 12.3, 12.83, 14.31, 14.31, -10.51, -10.51, -10.51, -10.51, -10.51, -10.23, -10.01, -10.01, -9.72, -9.72, -9.48, -9.48, -9.48, -9.17, -9.17, -8.87, -8.87, -8.56, -8.24, -8.24, -7.89, -7.33, -7.22, -7.22, -7.22, -6.8, -6.8, -6.35, -6.35, -6.35, -6.08, -5.4, -4.72, -4.76, -5.0, -5.26, -5.0, -5.3, -5.3, -5.0, -4.13, -3.39, -2.71, -1.76, -1.76, -0.89, -0.89, -0.93, -1.02, 0.0, 0.0, 1.18, 2.49, 3.77, 4.6, 3.99, 3.99, 4.4, 3.45, 3.61, 3.61, 3.52, 2.1, 2.82, 2.49, 1.84, 2.49, 2.33, 1.23, 1.39, 0.0, 1.43, 1.94, 2.4, 1.2, 1.09, 2.04, 2.3, 2.51, 0.0, -1.28, -3.9, -8.1, 0.0, 6.0, -0.0, 0.0, 6.94, 4.65, 4.1, 4.1, 4.1, 7.78, 12.04, 12.35, 12.79, 13.32, 13.32, -10.51, -10.51, -10.51, -10.51, -10.51, -10.51, -10.01, -10.01, -10.01, -9.72, -9.72, -9.17, -9.17, -9.17, -9.17, -9.17, -8.56, -8.56, -8.24, -8.24, -7.95, -7.61, -7.33, -6.96, -6.96, -6.96, -6.56, -6.56, -6.56, -6.12, -6.12, -5.86, -5.4, -5.2, -4.76, -4.48, -4.73, -5.0, -4.68, -5.0, -4.13, -4.44, -2.71, -2.42, -1.68, -1.76, -1.84, -1.84, -1.02, 0.0, 0.0, 2.33, 3.25, 4.36, 3.99, 3.99, 3.99, 3.81, 3.11, 2.39, 2.39, 2.28, 2.02, 1.39, 1.33, 1.58, 1.22, 0.0, 0.0, 0.0, 0.0, 1.61, 2.21, 3.68, 2.61, 0.0, 0.0, 0.0, -1.31, -1.31, -1.25, -5.35, -10.47, 12.07, 11.91, 12.96, 13.15, 11.6, 6.67, 4.1, 4.1, 6.9, 10.73, 12.45, 12.71, 12.71, 11.99, 12.45, -10.51, -10.51, -10.51, -10.51, -10.51, -10.51, -10.01, -10.01, -10.01, -9.72, -9.72, -9.46, -9.46, -9.17, -9.17, -9.17, -8.87, -8.56, -8.24, -7.95, -7.95, -7.61, -7.61, -7.33, -6.96, -6.96, -6.96, -6.56, -6.56, -6.56, -6.56, -6.12, -6.12, -5.44, -5.44, -4.76, -4.48, -4.73, -4.4, -4.8, -4.13, -4.44, -3.82, -1.28, -0.89, -1.62, -1.84, -2.02, -1.02, 0.0, 1.14, 3.25, 4.18, 3.82, 3.65, 3.49, 3.49, 2.7, 2.97, 2.13, 2.13, 2.28, 2.1, 1.33, 1.22, 0.0, 0.0, 0.0, 0.0, 0.0, 0.0, 2.13, 2.09, 2.65, 4.2, 2.83, 0.0, -2.98, -4.51, -4.61, -3.13, -5.85, -7.54, 12.65, 13.77, 13.31, 13.67, 11.09, 6.9, 6.0, 6.9, 8.05, 10.73, 11.99, 13.01, 11.6, 11.16, 11.99, -10.79, -10.79, -10.51, -10.51, -10.51, -10.51, -10.3, -10.01, -10.01, -10.01, -10.01, -9.46, -9.46, -9.46, -9.17, -8.87, -8.56, -8.56, -8.24, -7.95, -7.95, -7.95, -7.61, -7.61, -7.33, -6.96, -6.96, -6.96, -6.56, -6.56, -6.56, -6.56, -6.12, -6.12, -5.44, -5.44, -4.76, -4.48, -4.15, -4.23, -4.13, -4.25, -3.82, -2.83, -1.28, -0.82, -1.92, -1.07, 0.0, 1.14, 2.13, 3.65, 3.49, 3.49, 3.21, 3.21, 2.35, 2.57, 1.84, 1.84, 2.13, 1.04, 0.94, 0.0, 0.0, 0.0, 0.0, 0.0, 0.0, 0.0, 1.39, 1.44, 0.0, 1.94, 5.65, 8.48, 5.43, -1.34, -4.52, -5.81, -5.62, -6.42, 0.0, 11.16, 11.8, 12.11, 12.79, 11.8, 8.94, 6.2, 7.13, 8.31, 11.09, 12.39, 11.99, 11.16, 10.79, 11.16, -10.41, -10.41, -10.15, -10.15, -10.15, -9.94, -9.94, -9.66, -9.66, -9.66, -9.42, -9.42, -9.46, -9.46, -9.46, -8.85, -8.85, -8.85, -8.24, -8.24, -7.95, -7.95, -7.61, -7.61, -7.61, -7.33, -6.96, -6.96, -6.96, -6.96, -6.56, -6.31, -5.89, -5.89, -6.16, -5.7, -5.2, -5.0, -4.48, -3.98, -3.61, -3.69, -3.51, -3.51, -2.39, -1.11, 0.0, 0.0, 0.98, 1.93, 2.47, 3.21, 3.21, 2.35, 2.35, 2.35, 2.23, 1.6, 1.75, 1.84, 0.93, 1.04, 0.0, 0.0, 0.0, 0.0, 0.0, 0.0, 0.0, 1.39, 1.44, 0.0, 0.0, 0.0, 1.94, 8.35, 13.59, 8.62, 0.0, -2.13, -5.81, -3.58, 7.34, 10.99, 10.47, 9.8, 10.12, 10.43, 9.22, 6.4, 7.36, 10.12, 12.39, 11.09, 9.48, 10.79, 11.6, 11.6, -10.41, -10.41, -10.41, -10.15, -10.15, -9.94, -9.94, -9.66, -9.66, -9.42, -9.42, -9.42, -9.13, -9.13, -9.13, -8.85, -8.85, -8.85, -8.53, -8.24, -8.24, -7.95, -7.95, -7.61, -7.61, -7.33, -7.33, -7.33, -6.96, -6.96, -6.96, -6.31, -6.31, -6.16, -6.16, -5.7, -5.7, -5.2, -5.0, -4.73, -3.98, -3.61, -3.69, -3.25, -3.39, -1.63, 0.0, 0.75, 1.54, 2.28, 2.28, 2.17, 2.17, 2.17, 2.06, 1.4, 1.44, 1.52, 1.6, 0.81, 0.93, 0.0, 0.0, 0.0, 0.0, 0.0, 1.69, 0.0, 1.45, 1.39, 1.28, 0.0, 0.0, -1.38, -2.09, 0.0, 6.93, 12.21, 14.49, 10.42, 8.4, 8.68, 11.17, 10.47, 7.89, 6.73, 7.69, 8.58, 7.59, 4.52, 8.58, 12.79, 12.39, 9.48, 9.17, 11.6, 11.6, 11.6, -10.41, -10.41, -10.41, -10.41, -9.94, -9.94, -9.94, -9.94, -9.94, -9.42, -9.42, -9.42, -9.42, -9.13, -8.85, -8.85, -8.85, -8.85, -8.53, -8.24, -8.24, -7.95, -7.95, -7.95, -7.61, -7.61, -7.6, -7.6, -7.33, -6.96, -6.96, -6.31, -6.31, -6.58, -6.16, -6.16, -5.7, -5.98, -5.47, -4.73, -4.73, -3.98, -3.61, -2.95, -3.16, -2.51, -0.76, 0.0, 0.72, 0.69, 1.36, 1.47, 1.47, 1.47, 1.4, 1.4, 1.32, 0.67, 0.77, 0.81, 0.0, 0.0, 0.0, 0.0, 0.0, 1.62, 1.69, 1.76, 2.49, 2.71, 1.23, 0.0, -2.52, -2.54, -3.85, -2.72, 0.0, 6.51, 11.46, 12.19, 11.44, 12.42, 9.33, 7.68, 5.3, 3.65, 4.52, 6.4, 5.31, 5.31, 7.69, 11.53, 11.53, 9.48, 10.79, 11.6, 11.6, 11.6, -10.41, -10.41, -10.23, -10.23, -9.94, -9.94, -9.59, -9.59, -9.37, -9.08, -9.08, -9.42, -9.42, -8.85, -8.85, -8.85, -8.85, -8.53, -8.53, -8.24, -8.24, -8.24, -7.95, -8.24, -8.24, -7.89, -7.6, -7.6, -7.6, -6.96, -6.96, -6.7, -6.58, -6.58, -6.16, -6.16, -5.98, -5.98, -5.47, -5.26, -4.73, -3.98, -3.39, -3.61, -2.95, -2.25, -1.52, -0.73, 0.0, 0.0, 0.72, 0.72, 0.69, 0.69, 0.69, 0.71, 0.71, 0.67, 0.67, 0.0, 0.0, 0.0, 0.0, 0.0, 0.0, 1.62, 1.62, 2.28, 2.49, 1.33, 0.0, -1.14, -2.42, -3.6, -3.85, -2.56, 0.0, 2.59, 5.87, 9.26, 10.63, 11.47, 8.2, 4.84, 3.56, 1.51, 2.89, 4.66, 3.58, 3.25, 12.79, 10.41, 9.17, 9.17, 11.6, 12.27, 12.27, 12.27, -9.86, -9.86, -9.86, -9.86, -9.59, -9.59, -9.59, -9.37, -9.37, -9.37, -9.08, -9.08, -8.82, -8.82, -8.53, -8.53, -8.53, -8.53, -8.53, -8.53, -8.24, -8.24, -7.95, -7.95, -8.24, -8.24, -7.6, -7.6, -7.6, -7.33, -7.24, -6.97, -6.97, -6.58, -6.58, -6.16, -6.45, -5.98, -5.98, -5.77, -5.0, -4.73, -4.4, -3.61, -2.95, -2.25, -1.52, -0.73, 0.0, 0.0, 0.0, 0.0, 0.72, 0.69, 0.69, 0.65, 0.65, 0.67, 0.0, 0.0, 0.0, 0.0, 0.0, -0.93, 0.0, 0.0, 0.0, 0.0, 0.0, 0.0, 0.0, -1.18, -2.52, -2.45, -2.4, -1.25, 0.0, 1.15, 2.36, 4.95, 8.95, 9.2, 7.37, 4.47, 1.54, 0.0, 0.0, 0.0, 0.0, 6.2, 11.99, 8.53, 10.41, 11.2, 11.2, 11.84, 11.84, 11.84, -9.86, -9.86, -9.86, -9.86, -9.86, -9.37, -9.37, -9.37, -9.37, -9.37, -9.37, -9.08, -8.82, -8.82, -8.53, -8.53, -8.53, -8.53, -8.53, -8.53, -8.24, -8.24, -8.24, -7.95, -7.95, -8.24, -7.89, -7.6, -7.6, -7.33, -7.24, -6.97, -6.97, -6.58, -6.58, -6.16, -6.45, -5.98, -6.29, -5.54, -5.54, -5.0, -4.4, -3.76, -3.61, -2.95, -2.25, -1.45, -0.73, 0.0, 0.0, 0.0, 0.0, 0.0, 0.0, 0.0, 0.0, 0.0, 0.0, 0.0, 0.0, 0.0, 0.0, -0.89, -0.99, 0.0, 0.0, 0.0, 0.0, -1.09, -1.14, -1.23, -1.16, -1.25, -1.17, 0.0, 0.0, 0.0, 1.15, 3.47, 4.84, 7.73, 9.19, 5.53, 0.0, -12.96, 0.0, 0.0, 0.0, 9.17, 8.85, 10.41, 10.8, 10.8, 11.21, 11.91, 11.91, 11.91, -9.86, -9.86, -9.86, -9.3, -9.3, -9.66, -9.37, -9.37, -9.37, -9.37, -9.37, -9.08, -8.82, -8.82, -8.82, -8.53, -8.53, -8.53, -8.53, -8.24, -8.24, -8.24, -8.24, -7.95, -7.95, -8.24, -8.24, -7.6, -7.33, -7.33, -7.61, -6.97, -6.97, -6.97, -6.58, -6.87, -6.45, -5.75, -6.04, -5.54, -5.54, -5.0, -4.4, -4.4, -3.76, -2.95, -2.25, -1.45, -1.45, -0.73, 0.0, 0.0, 0.0, 0.0, 0.0, 0.0, 0.0, 0.0, 0.0, 0.0, 0.0, 0.0, 0.0, -0.89, -0.99, 0.0, 0.0, 0.0, 0.0, 0.0, 0.0, -1.07, -1.16, -1.2, 0.0, 0.0, 0.0, 0.0, 1.13, 3.52, 3.47, 5.18, 10.39, 11.44, -18.97, -8.8, 0.0, 0.0, 5.8, 5.6, 11.2, 11.45, 10.4, 10.0, 10.96, 10.73, 10.73, 10.73, -9.5, -9.5, -9.3, -9.3, -9.3, -9.3, -9.02, -9.02, -9.37, -9.37, -9.37, -9.37, -8.82, -8.82, -8.82, -8.53, -8.53, -8.53, -8.24, -8.24, -8.24, -8.24, -8.24, -7.95, -7.95, -7.95, -7.61, -7.61, -7.61, -7.61, -7.61, -6.97, -6.97, -7.26, -6.87, -6.87, -6.2, -6.2, -5.75, -5.54, -5.54, -5.0, -4.4, -4.4, -3.76, -3.07, -2.25, -2.25, -1.45, -0.73, -0.7, 0.0, 0.0, 0.0, 0.0, 0.0, 0.0, 0.0, 0.0, 0.0, 0.0, 0.0, -0.73, -0.85, -1.67, -1.11, -1.11, 0.0, 0.0, 0.0, 0.0, -0.93, -1.01, -1.09, -1.13, 0.0, 0.0, 0.0, 1.3, 2.43, 3.79, 4.86, 9.0, 13.89, -19.6, -5.1, 0.0, 4.6, 6.45, 8.85, 10.8, 11.03, 9.6, 9.2, 9.83, 9.29, 9.29, 9.29, -9.3, -9.3, -9.3, -9.3, -9.3, -9.3, -9.02, -9.02, -9.02, -9.37, -9.37, -9.37, -8.82, -8.82, -8.82, -8.82, -8.53, -8.24, -8.24, -8.24, -8.24, -8.24, -8.24, -7.95, -7.95, -7.95, -7.61, -7.61, -7.61, -7.61, -6.97, -6.97, -6.97, -6.61, -6.61, -6.2, -6.2, -5.75, -5.75, -5.26, -5.54, -5.0, -4.4, -4.4, -3.76, -2.88, -2.76, -2.1, -1.36, -1.36, -0.68, -0.65, 0.0, 0.0, 0.0, 0.0, 0.0, 0.0, 0.0, 0.0, 0.0, -0.63, -0.63, -1.44, -1.58, -1.11, -1.11, 0.0, 0.0, 0.0, -0.98, -0.98, -1.93, -2.0, -1.09, -1.13, 0.0, 0.0, 1.25, 2.64, 2.64, 3.88, 5.81, 9.32, 0.0, -0.0, 14.3, 10.73, 8.93, 9.3, 11.03, 11.28, 10.84, 10.73, 10.14, 9.54, 9.54, 9.54, -9.3, -9.3, -9.3, -9.3, -9.3, -9.3, -9.02, -9.02, -9.02, -9.02, -9.02, -9.37, -8.82, -8.82, -8.82, -8.82, -8.53, -8.24, -8.24, -8.24, -8.24, -8.24, -8.24, -7.95, -7.95, -7.61, -7.61, -7.61, -7.61, -6.97, -6.97, -6.97, -6.33, -6.61, -6.61, -6.2, -6.2, -5.75, -5.75, -5.26, -5.26, -4.73, -4.15, -4.15, -3.53, -2.88, -2.76, -2.1, -2.1, -1.36, -1.36, -0.65, -0.7, 0.0, 0.0, 0.0, 0.0, 0.0, 0.0, -0.62, -0.62, -0.63, -0.63, -1.36, -2.18, -1.4, -1.16, -1.04, -1.04, -1.09, -1.14, -1.02, -2.02, -2.83, -2.0, -2.08, -1.25, 0.0, 0.0, 1.25, 1.3, 2.81, 4.11, 4.12, 6.61, 11.41, 14.39, 12.07, 10.73, 10.41, 10.84, 11.18, 11.62, 11.02, 10.32, 9.21, 9.21, 9.21, -9.3, -9.3, -9.3, -9.3, -9.3, -9.08, -8.78, -8.78, -8.78, -8.78, -8.78, -9.12, -8.82, -8.82, -8.82, -8.82, -8.82, -8.53, -8.24, -8.24, -8.24, -8.24, -8.24, -8.24, -7.61, -7.61, -7.61, -7.33, -6.97, -6.97, -6.97, -6.33, -6.33, -6.61, -6.2, -6.2, -5.75, -5.75, -5.75, -5.26, -4.73, -4.73, -4.15, -4.15, -3.53, -3.53, -2.76, -2.76, -2.1, -1.36, -1.36, -0.65, -0.65, -0.64, 0.0, 0.0, 0.0, 0.0, -0.57, -0.62, -0.58, -0.58, -1.25, -1.25, -2.0, -2.18, -2.28, -2.04, -1.09, 0.0, 0.0, 0.0, -1.02, -2.23, -3.82, -3.21, -2.37, -1.25, 0.0, 0.0, 0.0, 1.38, 1.47, 27.27, 10.29, 10.91, 11.7, 11.6, 11.62, 10.28, 11.18, 11.18, 11.4, 10.68, 9.6, 9.4, 9.4, 9.4, -9.3, -9.3, -9.3, -9.3, -9.08, -9.08, -8.78, -8.78, -8.78, -8.78, -8.78, -9.12, -8.82, -8.82, -8.82, -8.82, -8.82, -8.82, -8.24, -8.24, -8.24, -8.24, -8.24, -7.9, -7.61, -7.33, -7.33, -6.97, -6.97, -6.97, -6.33, -6.33, -6.33, -6.2, -6.2, -6.2, -5.75, -5.75, -5.26, -5.26, -4.73, -4.73, -4.15, -4.15, -4.15, -3.53, -3.53, -2.76, -2.1, -2.02, -1.36, -1.3, -0.62, -0.64, -0.64, -0.61, -0.61, -0.61, -0.57, -0.57, -0.58, -1.16, -1.16, -1.25, -2.0, -2.18, -2.4, -1.65, -1.14, 0.0, 0.0, 0.0, 0.0, 0.0, 0.0, -2.6, -1.28, -1.2, 0.0, -1.25, 0.0, 0.0, 0.0, -0.0, 4.41, 8.4, 10.75, 9.17, 10.04, 11.03, 10.0, 10.38, 10.0, 9.7, 9.6, 9.2, 9.2, 9.2, -9.3, -9.3, -9.3, -9.08, -9.08, -8.78, -8.78, -8.78, -8.78, -8.78, -8.78, -9.12, -8.82, -8.82, -8.82, -8.82, -8.82, -8.82, -8.82, -8.24, -8.24, -8.24, -8.24, -7.61, -7.61, -7.61, -6.97, -6.97, -6.71, -6.33, -6.33, -6.33, -5.92, -6.2, -6.2, -5.75, -5.75, -5.75, -5.26, -5.26, -4.73, -4.73, -4.15, -4.15, -4.15, -4.15, -3.53, -2.76, -2.1, -2.1, -1.36, -1.36, -0.62, -0.62, -0.64, -0.61, -0.61, -0.61, -0.57, -0.57, -1.14, -1.16, -1.16, -1.84, -1.95, -2.12, -2.99, -2.54, -2.23, -1.07, -1.07, 0.0, 0.0, 0.0, 0.98, 0.98, 0.0, 0.0, -1.25, -1.25, -1.38, 0.0, 0.0, -0.0, 3.86, 6.64, 9.8, 7.59, 7.59, 8.94, 8.73, 9.67, 9.46, 9.48, 9.48, 8.34, 8.34, 8.34, -9.3, -9.3, -9.3, -9.3, -9.08, -8.78, -8.78, -8.78, -8.78, -8.78, -8.78, -8.78, -8.5, -8.82, -8.82, -8.82, -8.5, -8.5, -8.5, -8.22, -7.93, -7.93, -7.93, -7.61, -7.61, -7.26, -6.98, -6.98, -6.33, -6.33, -6.33, -6.33, -5.92, -6.2, -6.2, -5.75, -5.75, -5.26, -5.26, -5.26, -4.73, -4.73, -4.3, -3.77, -3.77, -3.98, -3.39, -2.76, -2.76, -2.1, -2.02, -1.36, -1.24, -0.62, -0.59, -0.59, -0.56, -0.61, -0.57, -1.14, -1.14, -1.14, -1.22, -1.81, -1.95, -2.54, -2.9, -3.15, -3.15, -2.33, -1.07, -1.07, 0.0, 0.0, 0.0, 0.0, 0.0, 0.0, -1.28, -1.33, -1.55, 2.02, 2.94, 0.0, 10.63, 6.75, 7.2, 7.26, 7.9, 7.9, 8.82, 8.82, 9.3, 9.86, 9.48, 8.72, 8.72, 8.72, -9.3, -9.3, -9.3, -9.3, -9.08, -8.78, -8.78, -8.78, -8.78, -8.78, -8.78, -8.78, -8.78, -8.5, -8.5, -8.5, -8.5, -8.5, -8.22, -8.22, -8.22, -7.93, -7.61, -7.61, -7.61, -6.98, -6.98, -6.98, -6.61, -6.61, -6.33, -5.92, -6.2, -5.95, -5.52, -5.52, -5.26, -5.26, -5.26, -5.26, -4.73, -4.3, -4.3, -3.77, -3.77, -3.2, -3.39, -2.76, -2.76, -2.1, -2.02, -1.3, -1.24, -1.24, -1.18, -1.18, -1.12, -1.12, -1.2, -1.14, -1.14, -1.14, -1.81, -1.81, -1.95, -2.69, -2.9, -3.8, -3.8, -3.25, -3.25, -2.1, -2.02, -0.98, -0.98, -0.98, -2.13, -1.14, -2.33, -2.52, 0.0, 1.96, 3.79, 3.16, 25.93, 12.39, 7.57, 7.54, 7.27, 7.9, 8.75, 8.75, 9.08, 8.82, 9.48, 9.48, 9.48, 9.48, -8.94, -8.94, -9.3, -9.3, -9.3, -8.78, -8.78, -8.78, -8.78, -8.78, -8.78, -8.78, -8.78, -8.5, -8.5, -8.5, -8.5, -8.22, -8.22, -8.22, -8.22, -7.93, -7.61, -7.32, -6.98, -6.98, -6.98, -6.98, -6.61, -6.34, -6.34, -5.95, -5.95, -5.95, -5.52, -5.52, -5.52, -5.26, -5.26, -5.26, -4.48, -4.3, -4.3, -3.77, -3.77, -3.2, -2.76, -2.76, -2.76, -2.1, -2.02, -1.3, -1.3, -1.24, -1.18, -1.18, -1.12, -1.12, -1.12, -1.2, -1.14, -1.69, -1.69, -1.91, -1.91, -2.69, -2.83, -3.7, -4.6, -4.18, -3.25, -2.95, -1.93, -0.93, -1.04, -1.04, -1.04, -2.04, -3.25, -1.28, 0.0, 1.48, 1.63, 1.93, 10.6, 12.39, 6.91, 6.35, 6.94, 7.14, 7.72, 8.22, 8.53, 9.66, 9.3, 9.3, 9.3, 9.3, -9.21, -9.21, -8.94, -9.3, -9.3, -8.78, -8.78, -8.78, -8.78, -8.78, -8.78, -8.78, -8.78, -8.5, -8.5, -8.5, -8.22, -8.22, -8.22, -8.22, -7.91, -7.6, -7.32, -7.32, -6.98, -6.98, -6.98, -6.61, -6.34, -6.34, -6.34, -5.95, -5.95, -5.95, -5.52, -5.52, -5.52, -5.05, -5.05, -4.8, -4.3, -4.3, -4.3, -3.77, -3.77, -3.2, -3.39, -2.76, -2.76, -2.1, -2.02, -1.3, -1.3, -1.24, -1.18, -1.18, -1.12, -1.12, -1.12, -1.12, -1.2, -1.78, -1.78, -1.78, -1.91, -2.69, -2.83, -3.7, -4.28, -4.28, -3.61, -3.21, -2.02, -0.93, -0.93, -0.93, 0.0, 0.0, 0.0, 0.0, 0.0, 0.0, 0.0, 0.0, 0.0, 8.76, 4.77, 4.62, 5.92, 6.9, 7.18, 8.02, 8.85, 9.76, 9.08, 10.04, 10.04, 10.04, -9.21, -9.21, -9.21, -8.94, -9.3, -9.08, -8.78, -8.78, -8.78, -8.78, -8.78, -8.78, -8.78, -8.78, -8.5, -8.22, -8.22, -8.22, -8.22, -7.9, -7.6, -7.6, -7.6, -7.32, -6.98, -6.98, -6.98, -6.61, -6.34, -6.34, -6.34, -5.95, -5.95, -5.95, -5.52, -5.52, -5.52, -5.05, -4.8, -4.8, -4.3, -4.3, -4.3, -3.77, -3.77, -3.77, -3.39, -2.76, -2.76, -2.1, -2.02, -1.93, -1.93, -1.24, -1.24, -1.18, -1.18, -1.12, -1.12, -1.12, -1.12, -1.78, -1.78, -1.78, -1.91, -2.5, -2.83, -2.83, -3.44, -3.7, -3.61, -3.21, -2.02, 0.0, 0.0, 0.0, 0.0, 0.0, 0.0, 0.0, 0.0, 0.0, -1.42, -1.56, 0.0, -0.0, -0.0, 1.6, 3.76, 4.74, 5.18, 7.18, 8.02, 8.85, 9.36, 9.53, 9.53, 9.53, -9.21, -9.21, -9.21, -9.21, -8.94, -8.73, -8.78, -8.78, -8.78, -8.78, -8.78, -8.78, -8.78, -8.78, -8.52, -7.9, -7.9, -7.9, -7.9, -7.6, -7.6, -7.6, -7.6, -6.98, -6.98, -6.98, -6.98, -6.61, -6.34, -6.34, -6.34, -5.95, -5.95, -5.95, -5.52, -5.52, -5.52, -5.05, -4.8, -4.8, -4.3, -4.3, -4.3, -4.3, -3.77, -3.77, -3.39, -2.76, -2.76, -2.02, -2.02, -1.93, -1.93, -1.84, -1.84, -1.75, -1.18, -1.18, -1.18, -1.12, -1.67, -1.67, -1.78, -1.78, -1.78, -1.91, -2.63, -2.83, -3.44, -3.44, -4.2, -3.61, -2.11, -1.44, 0.0, 0.0, 0.0, 0.0, -1.14, -1.18, -2.52, -2.81, -3.01, -3.2, -2.07, -7.92, -7.63, -0.0, 1.42, 2.64, 5.15, 6.0, 7.43, 7.82, 8.85, 9.42, 9.42, 9.42, -9.21, -9.21, -9.21, -9.21, -8.94, -8.73, -8.78, -8.78, -8.78, -8.78, -8.78, -8.78, -8.78, -8.78, -8.52, -7.9, -7.9, -7.9, -7.9, -7.6, -7.6, -7.6, -7.6, -6.98, -6.98, -6.98, -6.98, -6.61, -6.34, -6.34, -6.34, -5.95, -5.95, -5.95, -5.52, -5.52, -5.52, -5.05, -4.8, -4.8, -4.3, -4.3, -4.3, -4.3, -3.77, -3.77, -3.39, -2.76, -2.76, -2.02, -2.02, -1.93, -1.93, -1.84, -1.84, -1.75, -1.18, -1.18, -1.18, -1.12, -1.67, -1.67, -1.78, -1.78, -1.78, -1.91, -2.63, -2.83, -3.44, -3.44, -4.2, -3.61, -2.11, -1.44, 0.0, 0.0, 0.0, 0.0, -1.14, -1.18, -2.52, -3.96, -4.24, -3.1, -1.78, -2.22, -5.75, -0.0, -0.0, 1.46, 4.0, 4.89, 6.2, 7.44, 7.68, 8.53, 8.53, 8.53]}]